Time,TemperatureF,DewpointF,PressureIn,WindDirection,WindDirectionDegrees,WindSpeedMPH,WindSpeedGustMPH,Humidity,HourlyPrecipIn,Conditions,Clouds,dailyrainin,SoftwareType,DateUTC
2013-03-31 00:00:00,54.3,52.3,29.95,SE,131,0.0,1.0,93,0.06,,,0.29,Wunderground v.1.15,2013-03-31 04:00:00,
2013-03-31 00:01:00,54.3,52.3,29.95,SE,131,0.0,1.0,93,0.06,,,0.29,Wunderground v.1.15,2013-03-31 04:01:00,
2013-03-31 00:07:00,54.3,52.3,29.95,SE,131,4.0,4.0,93,0.05,,,0.00,Wunderground v.1.15,2013-03-31 04:07:00,
2013-03-31 00:11:00,54.3,52.3,29.95,SE,131,3.0,4.0,93,0.05,,,0.00,Wunderground v.1.15,2013-03-31 04:11:00,
2013-03-31 00:12:00,54.3,52.0,29.95,SE,131,2.0,4.0,92,0.07,,,0.01,Wunderground v.1.15,2013-03-31 04:12:00,
2013-03-31 00:13:00,54.4,52.4,29.95,SE,130,3.0,4.0,93,0.07,,,0.01,Wunderground v.1.15,2013-03-31 04:13:00,
2013-03-31 00:18:00,54.6,52.3,29.95,SE,131,1.0,4.0,92,0.18,,,0.02,Wunderground v.1.15,2013-03-31 04:18:00,
2013-03-31 00:19:00,54.6,52.3,29.95,SE,130,1.0,4.0,92,0.15,,,0.02,Wunderground v.1.15,2013-03-31 04:19:00,
2013-03-31 00:24:00,54.6,52.3,29.95,SE,130,0.0,5.0,92,0.20,,,0.04,Wunderground v.1.15,2013-03-31 04:24:00,
2013-03-31 00:25:00,54.6,52.3,29.95,SE,131,2.0,5.0,92,0.14,,,0.05,Wunderground v.1.15,2013-03-31 04:25:00,
2013-03-31 00:30:00,54.5,52.2,29.95,SE,130,1.0,1.0,92,0.24,,,0.06,Wunderground v.1.15,2013-03-31 04:30:00,
2013-03-31 00:31:00,54.5,52.5,29.95,SE,131,0.0,1.0,93,0.19,,,0.07,Wunderground v.1.15,2013-03-31 04:31:00,
2013-03-31 00:33:00,54.5,52.5,29.95,SE,130,0.0,1.0,93,0.35,,,0.08,Wunderground v.1.15,2013-03-31 04:33:00,
2013-03-31 00:35:00,54.4,52.4,29.95,SE,131,0.0,1.0,93,0.27,,,0.08,Wunderground v.1.15,2013-03-31 04:35:00,
2013-03-31 00:36:00,54.4,52.4,29.94,SE,131,0.0,1.0,93,0.27,,,0.09,Wunderground v.1.15,2013-03-31 04:36:00,
2013-03-31 00:40:00,54.3,52.3,29.94,SE,131,0.0,0.0,93,0.17,,,0.11,Wunderground v.1.15,2013-03-31 04:40:00,
2013-03-31 00:41:00,54.3,52.3,29.94,SE,131,0.0,0.0,93,0.17,,,0.11,Wunderground v.1.15,2013-03-31 04:41:00,
2013-03-31 00:42:00,54.3,52.3,29.94,SE,130,0.0,0.0,93,0.17,,,0.11,Wunderground v.1.15,2013-03-31 04:42:00,
2013-03-31 00:47:00,54.2,52.2,29.94,SE,131,0.0,1.0,93,0.14,,,0.12,Wunderground v.1.15,2013-03-31 04:47:00,
2013-03-31 00:49:00,54.2,52.5,29.94,SE,131,1.0,1.0,94,0.12,,,0.12,Wunderground v.1.15,2013-03-31 04:49:00,
2013-03-31 00:52:00,54.1,52.4,29.94,SE,130,0.0,2.0,94,0.08,,,0.12,Wunderground v.1.15,2013-03-31 04:52:00,
2013-03-31 00:53:00,54.1,52.4,29.94,SE,131,1.0,2.0,94,0.07,,,0.12,Wunderground v.1.15,2013-03-31 04:53:00,
2013-03-31 00:57:00,54.0,52.3,29.93,SE,130,0.0,2.0,94,0.05,,,0.12,Wunderground v.1.15,2013-03-31 04:57:00,
2013-03-31 00:58:00,54.0,52.3,29.93,SE,130,0.0,2.0,94,0.04,,,0.12,Wunderground v.1.15,2013-03-31 04:58:00,
2013-03-31 00:59:00,53.9,52.2,29.93,SE,131,0.0,2.0,94,0.04,,,0.12,Wunderground v.1.15,2013-03-31 04:59:00,
2013-03-31 01:00:00,53.9,52.2,29.93,SE,131,0.0,0.0,94,0.04,,,0.12,Wunderground v.1.15,2013-03-31 05:00:00,
2013-03-31 01:04:00,53.9,52.2,29.93,SE,131,0.0,0.0,94,0.00,,,0.13,Wunderground v.1.15,2013-03-31 05:04:00,
2013-03-31 01:07:00,53.8,52.1,29.92,SE,131,2.0,2.0,94,0.00,,,0.13,Wunderground v.1.15,2013-03-31 05:07:00,
2013-03-31 01:10:00,53.8,52.1,29.93,SE,131,0.0,0.0,94,0.00,,,0.13,Wunderground v.1.15,2013-03-31 05:10:00,
2013-03-31 01:12:00,53.8,52.1,29.93,SE,130,0.0,0.0,94,0.00,,,0.13,Wunderground v.1.15,2013-03-31 05:12:00,
2013-03-31 01:13:00,53.8,52.1,29.93,SE,131,0.0,0.0,94,0.06,,,0.14,Wunderground v.1.15,2013-03-31 05:13:00,
2013-03-31 01:19:00,53.8,52.1,29.92,SE,130,0.0,1.0,94,0.06,,,0.14,Wunderground v.1.15,2013-03-31 05:19:00,
2013-03-31 01:21:00,53.8,52.4,29.92,SE,130,0.0,1.0,95,0.06,,,0.14,Wunderground v.1.15,2013-03-31 05:21:00,
2013-03-31 01:25:00,53.8,52.4,29.92,SE,131,0.0,1.0,95,0.06,,,0.15,Wunderground v.1.15,2013-03-31 05:25:00,
2013-03-31 01:27:00,53.8,52.4,29.92,SE,130,0.0,1.0,95,0.06,,,0.15,Wunderground v.1.15,2013-03-31 05:27:00,
2013-03-31 01:28:00,53.7,52.3,29.92,SE,130,0.0,1.0,95,0.09,,,0.15,Wunderground v.1.15,2013-03-31 05:28:00,
2013-03-31 01:31:00,53.7,52.3,29.92,SE,130,0.0,0.0,95,0.09,,,0.16,Wunderground v.1.15,2013-03-31 05:31:00,
2013-03-31 01:33:00,53.7,52.3,29.92,SE,131,0.0,0.0,95,0.09,,,0.16,Wunderground v.1.15,2013-03-31 05:33:00,
2013-03-31 01:34:00,53.7,52.3,29.92,SE,130,0.0,0.0,95,0.09,,,0.16,Wunderground v.1.15,2013-03-31 05:34:00,
2013-03-31 01:40:00,53.7,52.3,29.92,SE,131,0.0,0.0,95,0.05,,,0.16,Wunderground v.1.15,2013-03-31 05:40:00,
2013-03-31 01:42:00,53.7,52.3,29.92,SE,131,0.0,0.0,95,0.05,,,0.16,Wunderground v.1.15,2013-03-31 05:42:00,
2013-03-31 01:46:00,53.7,52.3,29.91,SE,131,1.0,1.0,95,0.04,,,0.17,Wunderground v.1.15,2013-03-31 05:46:00,
2013-03-31 01:47:00,53.7,52.3,29.91,SE,131,1.0,1.0,95,0.04,,,0.17,Wunderground v.1.15,2013-03-31 05:47:00,
2013-03-31 01:49:00,53.7,52.3,29.91,SE,130,0.0,1.0,95,0.04,,,0.17,Wunderground v.1.15,2013-03-31 05:49:00,
2013-03-31 01:50:00,53.7,52.3,29.91,SE,131,0.0,0.0,95,0.09,,,0.18,Wunderground v.1.15,2013-03-31 05:50:00,
2013-03-31 01:55:00,53.7,52.3,29.91,SE,131,0.0,0.0,95,0.09,,,0.18,Wunderground v.1.15,2013-03-31 05:55:00,
2013-03-31 01:57:00,53.6,52.2,29.91,SE,131,0.0,0.0,95,0.08,,,0.18,Wunderground v.1.15,2013-03-31 05:57:00,
2013-03-31 02:01:00,53.6,52.2,29.91,SE,130,0.0,0.0,95,0.05,,,0.18,Wunderground v.1.15,2013-03-31 06:01:00,
2013-03-31 02:02:00,53.6,52.2,29.91,SE,131,0.0,0.0,95,0.05,,,0.18,Wunderground v.1.15,2013-03-31 06:02:00,
2013-03-31 02:04:00,53.6,52.2,29.91,SE,131,0.0,1.0,95,0.04,,,0.18,Wunderground v.1.15,2013-03-31 06:04:00,
2013-03-31 02:07:00,53.5,52.1,29.91,SE,131,0.0,1.0,95,0.00,,,0.18,Wunderground v.1.15,2013-03-31 06:07:00,
2013-03-31 02:10:00,53.5,52.1,29.90,SE,131,0.0,0.0,95,0.00,,,0.19,Wunderground v.1.15,2013-03-31 06:10:00,
2013-03-31 02:12:00,53.5,52.1,29.91,SE,131,0.0,0.0,95,0.00,,,0.19,Wunderground v.1.15,2013-03-31 06:12:00,
2013-03-31 02:15:00,53.5,52.1,29.91,SE,131,0.0,2.0,95,0.00,,,0.19,Wunderground v.1.15,2013-03-31 06:15:00,
2013-03-31 02:17:00,53.4,52.0,29.90,SE,130,0.0,2.0,95,0.00,,,0.19,Wunderground v.1.15,2013-03-31 06:17:00,
2013-03-31 02:19:00,53.4,52.0,29.90,SE,130,0.0,2.0,95,0.00,,,0.19,Wunderground v.1.15,2013-03-31 06:19:00,
2013-03-31 02:20:00,53.4,52.0,29.90,SE,131,1.0,1.0,95,0.00,,,0.19,Wunderground v.1.15,2013-03-31 06:20:00,
2013-03-31 02:22:00,53.4,52.0,29.90,SE,130,0.0,1.0,95,0.00,,,0.19,Wunderground v.1.15,2013-03-31 06:22:00,
2013-03-31 02:24:00,53.4,52.0,29.90,SE,131,0.0,1.0,95,0.04,,,0.20,Wunderground v.1.15,2013-03-31 06:24:00,
2013-03-31 02:27:00,53.3,51.9,29.90,SE,130,0.0,1.0,95,0.04,,,0.20,Wunderground v.1.15,2013-03-31 06:27:00,
2013-03-31 02:29:00,53.4,52.3,29.90,SE,131,0.0,1.0,96,0.04,,,0.20,Wunderground v.1.15,2013-03-31 06:29:00,
2013-03-31 02:32:00,53.4,52.3,29.90,SE,130,0.0,1.0,96,0.04,,,0.20,Wunderground v.1.15,2013-03-31 06:32:00,
2013-03-31 02:34:00,53.4,52.3,29.90,SE,131,0.0,1.0,96,0.04,,,0.20,Wunderground v.1.15,2013-03-31 06:34:00,
2013-03-31 02:38:00,53.4,52.3,29.89,SE,131,0.0,1.0,96,0.04,,,0.20,Wunderground v.1.15,2013-03-31 06:38:00,
2013-03-31 02:39:00,53.4,52.3,29.89,SE,130,0.0,1.0,96,0.04,,,0.20,Wunderground v.1.15,2013-03-31 06:39:00,
2013-03-31 02:43:00,53.4,52.3,29.89,SE,130,0.0,0.0,96,0.00,,,0.20,Wunderground v.1.15,2013-03-31 06:43:00,
2013-03-31 02:44:00,53.4,52.3,29.89,SE,131,0.0,0.0,96,0.00,,,0.20,Wunderground v.1.15,2013-03-31 06:44:00,
2013-03-31 02:48:00,53.4,52.3,29.89,SE,131,0.0,1.0,96,0.00,,,0.21,Wunderground v.1.15,2013-03-31 06:48:00,
2013-03-31 02:49:00,53.4,52.3,29.89,SE,131,0.0,1.0,96,0.00,,,0.21,Wunderground v.1.15,2013-03-31 06:49:00,
2013-03-31 02:53:00,53.3,52.2,29.89,SE,130,0.0,0.0,96,0.00,,,0.21,Wunderground v.1.15,2013-03-31 06:53:00,
2013-03-31 02:54:00,53.3,52.2,29.89,SE,131,0.0,0.0,96,0.00,,,0.21,Wunderground v.1.15,2013-03-31 06:54:00,
2013-03-31 02:55:00,53.3,52.2,29.89,SE,131,0.0,1.0,96,0.00,,,0.21,Wunderground v.1.15,2013-03-31 06:55:00,
2013-03-31 02:59:00,53.3,52.2,29.89,SE,131,0.0,1.0,96,0.00,,,0.21,Wunderground v.1.15,2013-03-31 06:59:00,
2013-03-31 03:00:00,53.2,52.1,29.89,SE,131,0.0,0.0,96,0.00,,,0.21,Wunderground v.1.15,2013-03-31 07:00:00,
2013-03-31 03:04:00,53.3,52.2,29.89,SE,131,0.0,2.0,96,0.00,,,0.21,Wunderground v.1.15,2013-03-31 07:04:00,
2013-03-31 03:05:00,53.3,52.2,29.89,SE,131,0.0,2.0,96,0.00,,,0.21,Wunderground v.1.15,2013-03-31 07:05:00,
2013-03-31 03:06:00,53.3,52.2,29.89,SE,131,0.0,2.0,96,0.00,,,0.21,Wunderground v.1.15,2013-03-31 07:06:00,
2013-03-31 03:09:00,53.3,52.2,29.89,SE,130,4.0,4.0,96,0.00,,,0.22,Wunderground v.1.15,2013-03-31 07:09:00,
2013-03-31 03:11:00,53.3,52.2,29.89,SE,131,1.0,3.0,96,0.00,,,0.22,Wunderground v.1.15,2013-03-31 07:11:00,
2013-03-31 03:15:00,53.4,52.3,29.88,SE,131,2.0,3.0,96,0.00,,,0.22,Wunderground v.1.15,2013-03-31 07:15:00,
2013-03-31 03:16:00,53.5,52.4,29.88,SE,131,1.0,5.0,96,0.00,,,0.22,Wunderground v.1.15,2013-03-31 07:16:00,
2013-03-31 03:20:00,53.7,52.6,29.88,SE,132,3.0,6.0,96,0.00,,,0.22,Wunderground v.1.15,2013-03-31 07:20:00,
2013-03-31 03:21:00,53.8,52.7,29.88,SE,132,3.0,6.0,96,0.00,,,0.22,Wunderground v.1.15,2013-03-31 07:21:00,
2013-03-31 03:22:00,53.8,52.7,29.88,SE,132,3.0,6.0,96,0.00,,,0.22,Wunderground v.1.15,2013-03-31 07:22:00,
2013-03-31 03:25:00,54.0,52.9,29.88,SE,132,3.0,6.0,96,0.00,,,0.22,Wunderground v.1.15,2013-03-31 07:25:00,
2013-03-31 03:27:00,54.1,53.0,29.88,SE,132,1.0,6.0,96,0.00,,,0.22,Wunderground v.1.15,2013-03-31 07:27:00,
2013-03-31 03:30:00,54.2,53.1,29.88,SE,132,1.0,5.0,96,0.00,,,0.22,Wunderground v.1.15,2013-03-31 07:30:00,
2013-03-31 03:31:00,54.2,53.1,29.88,SE,132,4.0,5.0,96,0.00,,,0.22,Wunderground v.1.15,2013-03-31 07:31:00,
2013-03-31 03:32:00,54.2,53.4,29.88,SE,132,5.0,5.0,97,0.00,,,0.22,Wunderground v.1.15,2013-03-31 07:32:00,
2013-03-31 03:33:00,54.3,53.5,29.88,SE,132,1.0,7.0,97,0.00,,,0.22,Wunderground v.1.15,2013-03-31 07:33:00,
2013-03-31 03:35:00,54.3,53.5,29.88,SE,132,4.0,7.0,97,0.00,,,0.22,Wunderground v.1.15,2013-03-31 07:35:00,
2013-03-31 03:37:00,54.3,53.2,29.88,SE,132,2.0,7.0,96,0.00,,,0.22,Wunderground v.1.15,2013-03-31 07:37:00,
2013-03-31 03:39:00,54.4,53.3,29.88,SE,132,2.0,7.0,96,0.00,,,0.22,Wunderground v.1.15,2013-03-31 07:39:00,
2013-03-31 03:40:00,54.4,53.3,29.88,SE,132,3.0,4.0,96,0.00,,,0.22,Wunderground v.1.15,2013-03-31 07:40:00,
2013-03-31 03:42:00,54.4,53.3,29.88,SE,135,5.0,7.0,96,0.00,,,0.23,Wunderground v.1.15,2013-03-31 07:42:00,
2013-03-31 03:44:00,54.5,53.4,29.88,SE,137,4.0,9.0,96,0.00,,,0.23,Wunderground v.1.15,2013-03-31 07:44:00,
2013-03-31 03:46:00,54.6,53.5,29.88,SE,137,3.0,9.0,96,0.13,,,0.24,Wunderground v.1.15,2013-03-31 07:46:00,
2013-03-31 03:47:00,54.6,53.5,29.88,SE,137,3.0,9.0,96,0.13,,,0.24,Wunderground v.1.15,2013-03-31 07:47:00,
2013-03-31 03:49:00,54.6,53.5,29.88,SE,138,4.0,9.0,96,0.26,,,0.25,Wunderground v.1.15,2013-03-31 07:49:00,
2013-03-31 03:52:00,54.7,53.6,29.87,SSE,147,4.0,8.0,96,0.16,,,0.26,Wunderground v.1.15,2013-03-31 07:52:00,
2013-03-31 03:53:00,54.7,53.6,29.87,SSE,147,4.0,8.0,96,0.16,,,0.26,Wunderground v.1.15,2013-03-31 07:53:00,
2013-03-31 03:54:00,54.7,53.6,29.88,SSE,147,2.0,8.0,96,0.16,,,0.26,Wunderground v.1.15,2013-03-31 07:54:00,
2013-03-31 03:57:00,54.8,53.7,29.88,South,179,4.0,16.0,96,0.11,,,0.26,Wunderground v.1.15,2013-03-31 07:57:00,
2013-03-31 03:58:00,54.8,53.7,29.88,South,179,1.0,16.0,96,0.11,,,0.27,Wunderground v.1.15,2013-03-31 07:58:00,
2013-03-31 03:59:00,54.8,53.7,29.87,South,179,3.0,16.0,96,0.11,,,0.27,Wunderground v.1.15,2013-03-31 07:59:00,
2013-03-31 04:02:00,54.8,53.7,29.88,South,179,5.0,6.0,96,0.11,,,0.27,Wunderground v.1.15,2013-03-31 08:02:00,
2013-03-31 04:03:00,54.8,53.7,29.87,South,179,3.0,6.0,96,0.10,,,0.27,Wunderground v.1.15,2013-03-31 08:03:00,
2013-03-31 04:04:00,54.8,53.7,29.87,South,179,3.0,6.0,96,0.08,,,0.27,Wunderground v.1.15,2013-03-31 08:04:00,
2013-03-31 04:08:00,54.8,53.7,29.87,South,179,4.0,6.0,96,0.05,,,0.27,Wunderground v.1.15,2013-03-31 08:08:00,
2013-03-31 04:10:00,54.8,53.7,29.87,South,179,3.0,4.0,96,0.05,,,0.27,Wunderground v.1.15,2013-03-31 08:10:00,
2013-03-31 04:13:00,54.8,53.7,29.87,South,179,4.0,7.0,96,0.04,,,0.27,Wunderground v.1.15,2013-03-31 08:13:00,
2013-03-31 04:16:00,54.9,53.8,29.87,South,179,4.0,7.0,96,0.00,,,0.27,Wunderground v.1.15,2013-03-31 08:16:00,
2013-03-31 04:19:00,54.9,53.8,29.87,South,182,2.0,13.0,96,0.00,,,0.27,Wunderground v.1.15,2013-03-31 08:19:00,
2013-03-31 04:22:00,54.8,53.7,29.87,South,182,2.0,6.0,96,0.00,,,0.27,Wunderground v.1.15,2013-03-31 08:22:00,
2013-03-31 04:24:00,54.8,53.7,29.87,South,182,5.0,6.0,96,0.00,,,0.28,Wunderground v.1.15,2013-03-31 08:24:00,
2013-03-31 04:25:00,54.8,53.7,29.87,South,182,5.0,6.0,96,0.00,,,0.28,Wunderground v.1.15,2013-03-31 08:25:00,
2013-03-31 04:27:00,54.9,53.8,29.87,South,182,8.0,9.0,96,0.00,,,0.28,Wunderground v.1.15,2013-03-31 08:27:00,
2013-03-31 04:30:00,54.9,53.8,29.87,South,182,2.0,3.0,96,0.00,,,0.28,Wunderground v.1.15,2013-03-31 08:30:00,
2013-03-31 04:32:00,54.9,53.8,29.86,South,182,7.0,7.0,96,0.00,,,0.28,Wunderground v.1.15,2013-03-31 08:32:00,
2013-03-31 04:35:00,54.9,53.8,29.86,South,182,1.0,7.0,96,0.07,,,0.29,Wunderground v.1.15,2013-03-31 08:35:00,
2013-03-31 04:37:00,54.9,53.8,29.86,South,182,3.0,10.0,96,0.07,,,0.29,Wunderground v.1.15,2013-03-31 08:37:00,
2013-03-31 04:40:00,55.0,54.2,29.86,South,182,4.0,5.0,97,0.07,,,0.29,Wunderground v.1.15,2013-03-31 08:40:00,
2013-03-31 04:43:00,55.0,54.2,29.86,South,182,3.0,5.0,97,0.06,,,0.29,Wunderground v.1.15,2013-03-31 08:43:00,
2013-03-31 04:45:00,55.0,54.2,29.86,South,182,2.0,5.0,97,0.05,,,0.29,Wunderground v.1.15,2013-03-31 08:45:00,
2013-03-31 04:46:00,55.0,54.2,29.86,South,182,2.0,5.0,97,0.04,,,0.29,Wunderground v.1.15,2013-03-31 08:46:00,
2013-03-31 04:47:00,55.0,54.2,29.86,South,182,3.0,5.0,97,0.04,,,0.29,Wunderground v.1.15,2013-03-31 08:47:00,
2013-03-31 04:50:00,55.0,54.2,29.86,South,182,3.0,3.0,97,0.00,,,0.29,Wunderground v.1.15,2013-03-31 08:50:00,
2013-03-31 04:52:00,55.0,54.2,29.86,South,182,3.0,4.0,97,0.00,,,0.30,Wunderground v.1.15,2013-03-31 08:52:00,
2013-03-31 04:55:00,55.0,54.2,29.86,South,182,4.0,6.0,97,0.00,,,0.30,Wunderground v.1.15,2013-03-31 08:55:00,
2013-03-31 04:56:00,55.0,54.2,29.86,South,182,1.0,6.0,97,0.00,,,0.30,Wunderground v.1.15,2013-03-31 08:56:00,
2013-03-31 04:57:00,55.0,54.2,29.86,South,182,4.0,6.0,97,0.00,,,0.30,Wunderground v.1.15,2013-03-31 08:57:00,
2013-03-31 04:58:00,55.0,54.2,29.86,South,182,3.0,6.0,97,0.00,,,0.30,Wunderground v.1.15,2013-03-31 08:58:00,
2013-03-31 05:00:00,55.0,54.2,29.86,South,182,1.0,7.0,97,0.00,,,0.30,Wunderground v.1.15,2013-03-31 09:00:00,
2013-03-31 05:02:00,55.0,54.2,29.86,South,182,1.0,7.0,97,0.00,,,0.30,Wunderground v.1.15,2013-03-31 09:02:00,
2013-03-31 05:03:00,55.0,54.2,29.86,South,182,1.0,7.0,97,0.00,,,0.30,Wunderground v.1.15,2013-03-31 09:03:00,
2013-03-31 05:07:00,55.0,54.2,29.86,South,182,2.0,7.0,97,0.00,,,0.30,Wunderground v.1.15,2013-03-31 09:07:00,
2013-03-31 05:09:00,55.0,54.2,29.86,South,182,2.0,7.0,97,0.00,,,0.30,Wunderground v.1.15,2013-03-31 09:09:00,
2013-03-31 05:12:00,55.0,54.2,29.86,South,182,4.0,14.0,97,0.00,,,0.30,Wunderground v.1.15,2013-03-31 09:12:00,
2013-03-31 05:13:00,55.0,54.2,29.86,South,182,6.0,14.0,97,0.00,,,0.30,Wunderground v.1.15,2013-03-31 09:13:00,
2013-03-31 05:14:00,55.1,54.3,29.86,South,182,4.0,14.0,97,0.00,,,0.30,Wunderground v.1.15,2013-03-31 09:14:00,
2013-03-31 05:17:00,55.1,54.3,29.86,South,182,3.0,14.0,97,0.00,,,0.30,Wunderground v.1.15,2013-03-31 09:17:00,
2013-03-31 05:18:00,55.1,54.3,29.86,South,182,1.0,14.0,97,0.00,,,0.30,Wunderground v.1.15,2013-03-31 09:18:00,
2013-03-31 05:19:00,55.1,54.3,29.86,South,182,3.0,14.0,97,0.00,,,0.30,Wunderground v.1.15,2013-03-31 09:19:00,
2013-03-31 05:23:00,55.1,54.3,29.86,South,182,3.0,8.0,97,0.00,,,0.30,Wunderground v.1.15,2013-03-31 09:23:00,
2013-03-31 05:24:00,55.1,54.3,29.86,South,182,2.0,8.0,97,0.00,,,0.30,Wunderground v.1.15,2013-03-31 09:24:00,
2013-03-31 05:28:00,55.2,54.4,29.86,South,182,5.0,11.0,97,0.00,,,0.30,Wunderground v.1.15,2013-03-31 09:28:00,
2013-03-31 05:29:00,55.2,54.4,29.86,South,182,3.0,11.0,97,0.00,,,0.30,Wunderground v.1.15,2013-03-31 09:29:00,
2013-03-31 05:33:00,55.2,54.4,29.86,South,182,3.0,9.0,97,0.00,,,0.30,Wunderground v.1.15,2013-03-31 09:33:00,
2013-03-31 05:34:00,55.2,54.4,29.86,South,182,4.0,9.0,97,0.00,,,0.30,Wunderground v.1.15,2013-03-31 09:34:00,
2013-03-31 05:39:00,55.2,54.4,29.86,South,182,4.0,9.0,97,0.00,,,0.30,Wunderground v.1.15,2013-03-31 09:39:00,
2013-03-31 05:40:00,55.2,54.4,29.86,South,182,5.0,5.0,97,0.00,,,0.30,Wunderground v.1.15,2013-03-31 09:40:00,
2013-03-31 05:44:00,55.2,54.4,29.86,South,182,4.0,8.0,97,0.00,,,0.30,Wunderground v.1.15,2013-03-31 09:44:00,
2013-03-31 05:45:00,55.2,54.4,29.86,South,182,2.0,9.0,97,0.00,,,0.30,Wunderground v.1.15,2013-03-31 09:45:00,
2013-03-31 05:46:00,55.2,54.4,29.86,South,182,2.0,9.0,97,0.00,,,0.30,Wunderground v.1.15,2013-03-31 09:46:00,
2013-03-31 05:50:00,55.2,54.4,29.86,South,182,2.0,4.0,97,0.00,,,0.31,Wunderground v.1.15,2013-03-31 09:50:00,
2013-03-31 05:51:00,55.2,54.4,29.86,South,182,3.0,7.0,97,0.00,,,0.31,Wunderground v.1.15,2013-03-31 09:51:00,
2013-03-31 05:55:00,55.2,54.4,29.86,South,182,2.0,7.0,97,0.00,,,0.31,Wunderground v.1.15,2013-03-31 09:55:00,
2013-03-31 05:57:00,55.2,54.4,29.86,South,182,2.0,7.0,97,0.00,,,0.31,Wunderground v.1.15,2013-03-31 09:57:00,
2013-03-31 06:00:00,55.2,54.4,29.86,South,182,2.0,4.0,97,0.00,,,0.31,Wunderground v.1.15,2013-03-31 10:00:00,
2013-03-31 06:03:00,55.1,54.3,29.86,South,182,1.0,6.0,97,0.00,,,0.31,Wunderground v.1.15,2013-03-31 10:03:00,
2013-03-31 06:06:00,55.1,54.3,29.86,South,182,3.0,6.0,97,0.00,,,0.31,Wunderground v.1.15,2013-03-31 10:06:00,
2013-03-31 06:07:00,55.1,54.3,29.86,South,182,1.0,6.0,97,0.00,,,0.31,Wunderground v.1.15,2013-03-31 10:07:00,
2013-03-31 06:08:00,55.1,54.3,29.86,South,182,3.0,6.0,97,0.00,,,0.31,Wunderground v.1.15,2013-03-31 10:08:00,
2013-03-31 06:11:00,55.1,54.3,29.86,South,182,3.0,6.0,97,0.00,,,0.31,Wunderground v.1.15,2013-03-31 10:11:00,
2013-03-31 06:13:00,55.1,54.3,29.86,South,182,1.0,6.0,97,0.00,,,0.31,Wunderground v.1.15,2013-03-31 10:13:00,
2013-03-31 06:14:00,55.1,54.3,29.86,South,182,6.0,6.0,97,0.00,,,0.31,Wunderground v.1.15,2013-03-31 10:14:00,
2013-03-31 06:17:00,55.1,54.3,29.86,South,182,1.0,6.0,97,0.00,,,0.31,Wunderground v.1.15,2013-03-31 10:17:00,
2013-03-31 06:18:00,55.1,54.3,29.86,South,182,4.0,6.0,97,0.00,,,0.31,Wunderground v.1.15,2013-03-31 10:18:00,
2013-03-31 06:19:00,55.1,54.3,29.86,South,182,3.0,6.0,97,0.00,,,0.31,Wunderground v.1.15,2013-03-31 10:19:00,
2013-03-31 06:22:00,55.1,54.3,29.86,South,182,2.0,4.0,97,0.00,,,0.31,Wunderground v.1.15,2013-03-31 10:22:00,
2013-03-31 06:23:00,55.1,54.3,29.86,South,182,3.0,4.0,97,0.00,,,0.31,Wunderground v.1.15,2013-03-31 10:23:00,
2013-03-31 06:24:00,55.1,54.3,29.86,South,182,3.0,4.0,97,0.00,,,0.31,Wunderground v.1.15,2013-03-31 10:24:00,
2013-03-31 06:28:00,55.1,54.3,29.86,South,182,4.0,6.0,97,0.00,,,0.31,Wunderground v.1.15,2013-03-31 10:28:00,
2013-03-31 06:29:00,55.1,54.3,29.87,South,182,3.0,3.0,97,0.00,,,0.31,Wunderground v.1.15,2013-03-31 10:29:00,
2013-03-31 06:30:00,55.1,54.3,29.87,South,182,3.0,3.0,97,0.00,,,0.31,Wunderground v.1.15,2013-03-31 10:30:00,
2013-03-31 06:33:00,55.1,54.3,29.87,South,182,2.0,3.0,97,0.00,,,0.31,Wunderground v.1.15,2013-03-31 10:33:00,
2013-03-31 06:35:00,55.0,54.2,29.87,South,182,1.0,3.0,97,0.00,,,0.31,Wunderground v.1.15,2013-03-31 10:35:00,
2013-03-31 06:38:00,55.0,54.2,29.87,South,182,3.0,4.0,97,0.00,,,0.31,Wunderground v.1.15,2013-03-31 10:38:00,
2013-03-31 06:39:00,55.0,54.2,29.87,South,182,2.0,4.0,97,0.00,,,0.31,Wunderground v.1.15,2013-03-31 10:39:00,
2013-03-31 06:40:00,55.0,54.2,29.87,South,182,4.0,7.0,97,0.00,,,0.31,Wunderground v.1.15,2013-03-31 10:40:00,
2013-03-31 06:41:00,55.0,54.2,29.87,South,182,3.0,7.0,97,0.00,,,0.31,Wunderground v.1.15,2013-03-31 10:41:00,
2013-03-31 06:43:00,55.0,54.2,29.87,South,182,2.0,7.0,97,0.00,,,0.31,Wunderground v.1.15,2013-03-31 10:43:00,
2013-03-31 06:45:00,55.0,54.2,29.87,South,182,5.0,7.0,97,0.00,,,0.31,Wunderground v.1.15,2013-03-31 10:45:00,
2013-03-31 06:47:00,55.1,54.3,29.87,South,182,2.0,7.0,97,0.00,,,0.31,Wunderground v.1.15,2013-03-31 10:47:00,
2013-03-31 06:48:00,55.1,54.3,29.87,South,182,2.0,7.0,97,0.00,,,0.31,Wunderground v.1.15,2013-03-31 10:48:00,
2013-03-31 06:50:00,55.1,54.3,29.87,South,182,3.0,3.0,97,0.00,,,0.31,Wunderground v.1.15,2013-03-31 10:50:00,
2013-03-31 06:52:00,55.1,54.3,29.87,South,182,1.0,4.0,97,0.00,,,0.31,Wunderground v.1.15,2013-03-31 10:52:00,
2013-03-31 06:53:00,55.0,54.2,29.87,South,182,2.0,5.0,97,0.00,,,0.31,Wunderground v.1.15,2013-03-31 10:53:00,
2013-03-31 06:55:00,55.0,54.2,29.87,South,182,5.0,5.0,97,0.00,,,0.31,Wunderground v.1.15,2013-03-31 10:55:00,
2013-03-31 06:57:00,55.0,54.2,29.87,South,182,2.0,5.0,97,0.00,,,0.31,Wunderground v.1.15,2013-03-31 10:57:00,
2013-03-31 07:00:00,55.0,54.2,29.87,South,182,6.0,6.0,97,0.00,,,0.31,Wunderground v.1.15,2013-03-31 11:00:00,
2013-03-31 07:02:00,55.1,54.3,29.87,South,182,3.0,6.0,97,0.00,,,0.31,Wunderground v.1.15,2013-03-31 11:02:00,
2013-03-31 07:05:00,55.0,54.2,29.87,South,182,2.0,6.0,97,0.00,,,0.31,Wunderground v.1.15,2013-03-31 11:05:00,
2013-03-31 07:07:00,55.0,54.2,29.87,South,182,3.0,6.0,97,0.00,,,0.31,Wunderground v.1.15,2013-03-31 11:07:00,
2013-03-31 07:08:00,55.1,54.3,29.88,South,182,2.0,6.0,97,0.00,,,0.31,Wunderground v.1.15,2013-03-31 11:08:00,
2013-03-31 07:12:00,55.0,54.2,29.87,South,182,3.0,7.0,97,0.00,,,0.31,Wunderground v.1.15,2013-03-31 11:12:00,
2013-03-31 07:13:00,55.1,54.3,29.87,South,182,2.0,7.0,97,0.00,,,0.31,Wunderground v.1.15,2013-03-31 11:13:00,
2013-03-31 07:17:00,55.1,54.3,29.88,South,182,3.0,7.0,97,0.00,,,0.31,Wunderground v.1.15,2013-03-31 11:17:00,
2013-03-31 07:18:00,55.0,54.2,29.88,South,182,0.0,7.0,97,0.00,,,0.31,Wunderground v.1.15,2013-03-31 11:18:00,
2013-03-31 07:19:00,55.1,54.3,29.88,South,182,3.0,7.0,97,0.00,,,0.31,Wunderground v.1.15,2013-03-31 11:19:00,
2013-03-31 07:23:00,55.1,54.3,29.88,South,182,1.0,6.0,97,0.00,,,0.31,Wunderground v.1.15,2013-03-31 11:23:00,
2013-03-31 07:24:00,55.1,54.3,29.87,South,182,4.0,6.0,97,0.00,,,0.31,Wunderground v.1.15,2013-03-31 11:24:00,
2013-03-31 07:28:00,55.1,54.3,29.88,South,182,5.0,6.0,97,0.00,,,0.31,Wunderground v.1.15,2013-03-31 11:28:00,
2013-03-31 07:30:00,55.0,54.2,29.87,South,182,3.0,4.0,97,0.00,,,0.31,Wunderground v.1.15,2013-03-31 11:30:00,
2013-03-31 07:33:00,55.0,54.2,29.87,South,182,7.0,7.0,97,0.00,,,0.31,Wunderground v.1.15,2013-03-31 11:33:00,
2013-03-31 07:34:00,55.0,54.2,29.87,South,182,5.0,7.0,97,0.00,,,0.31,Wunderground v.1.15,2013-03-31 11:34:00,
2013-03-31 07:35:00,55.0,54.2,29.88,South,182,1.0,7.0,97,0.00,,,0.31,Wunderground v.1.15,2013-03-31 11:35:00,
2013-03-31 07:39:00,55.1,54.3,29.88,South,182,2.0,7.0,97,0.00,,,0.31,Wunderground v.1.15,2013-03-31 11:39:00,
2013-03-31 07:41:00,55.1,54.3,29.88,South,182,0.0,3.0,97,0.00,,,0.31,Wunderground v.1.15,2013-03-31 11:41:00,
2013-03-31 07:44:00,55.0,54.2,29.88,South,182,3.0,3.0,97,0.00,,,0.31,Wunderground v.1.15,2013-03-31 11:44:00,
2013-03-31 07:47:00,55.0,54.2,29.88,South,182,3.0,4.0,97,0.00,,,0.31,Wunderground v.1.15,2013-03-31 11:47:00,
2013-03-31 07:49:00,55.0,54.2,29.88,South,182,1.0,4.0,97,0.00,,,0.31,Wunderground v.1.15,2013-03-31 11:49:00,
2013-03-31 07:50:00,55.0,54.2,29.88,South,182,1.0,2.0,97,0.00,,,0.31,Wunderground v.1.15,2013-03-31 11:50:00,
2013-03-31 07:52:00,55.1,54.3,29.88,South,182,2.0,4.0,97,0.00,,,0.31,Wunderground v.1.15,2013-03-31 11:52:00,
2013-03-31 07:54:00,55.1,54.3,29.88,South,182,2.0,6.0,97,0.00,,,0.31,Wunderground v.1.15,2013-03-31 11:54:00,
2013-03-31 07:55:00,55.1,54.3,29.88,South,182,2.0,6.0,97,0.00,,,0.31,Wunderground v.1.15,2013-03-31 11:55:00,
2013-03-31 07:58:00,55.1,54.3,29.88,South,182,2.0,6.0,97,0.00,,,0.31,Wunderground v.1.15,2013-03-31 11:58:00,
2013-03-31 07:59:00,55.1,54.3,29.88,South,182,1.0,6.0,97,0.00,,,0.31,Wunderground v.1.15,2013-03-31 11:59:00,
2013-03-31 08:00:00,55.1,54.3,29.88,South,182,0.0,2.0,97,0.00,,,0.31,Wunderground v.1.15,2013-03-31 12:00:00,
2013-03-31 08:05:00,55.1,54.3,29.89,South,182,1.0,4.0,97,0.00,,,0.31,Wunderground v.1.15,2013-03-31 12:05:00,
2013-03-31 08:10:00,55.1,54.3,29.89,South,182,0.0,1.0,97,0.00,,,0.31,Wunderground v.1.15,2013-03-31 12:10:00,
2013-03-31 08:15:00,55.1,54.3,29.89,South,182,1.0,3.0,97,0.00,,,0.31,Wunderground v.1.15,2013-03-31 12:15:00,
2013-03-31 08:20:00,55.2,54.4,29.89,South,182,1.0,2.0,97,0.00,,,0.31,Wunderground v.1.15,2013-03-31 12:20:00,
2013-03-31 08:21:00,55.2,54.4,29.89,South,182,2.0,3.0,97,0.00,,,0.31,Wunderground v.1.15,2013-03-31 12:21:00,
2013-03-31 08:25:00,55.2,54.4,29.89,South,182,1.0,5.0,97,0.00,,,0.31,Wunderground v.1.15,2013-03-31 12:25:00,
2013-03-31 08:26:00,55.3,54.5,29.89,South,182,1.0,5.0,97,0.00,,,0.31,Wunderground v.1.15,2013-03-31 12:26:00,
2013-03-31 08:30:00,55.3,54.5,29.90,South,182,4.0,5.0,97,0.00,,,0.31,Wunderground v.1.15,2013-03-31 12:30:00,
2013-03-31 08:31:00,55.3,54.5,29.90,South,182,0.0,5.0,97,0.00,,,0.31,Wunderground v.1.15,2013-03-31 12:31:00,
2013-03-31 08:32:00,55.3,54.5,29.90,South,182,1.0,5.0,97,0.00,,,0.31,Wunderground v.1.15,2013-03-31 12:32:00,
2013-03-31 08:35:00,55.3,54.5,29.90,South,182,0.0,5.0,97,0.00,,,0.31,Wunderground v.1.15,2013-03-31 12:35:00,
2013-03-31 08:36:00,55.3,54.5,29.90,South,182,0.0,5.0,97,0.00,,,0.31,Wunderground v.1.15,2013-03-31 12:36:00,
2013-03-31 08:37:00,55.3,54.5,29.90,South,182,1.0,5.0,97,0.00,,,0.31,Wunderground v.1.15,2013-03-31 12:37:00,
2013-03-31 08:41:00,55.3,54.5,29.90,South,182,2.0,3.0,97,0.00,,,0.31,Wunderground v.1.15,2013-03-31 12:41:00,
2013-03-31 08:43:00,55.3,54.5,29.90,South,182,3.0,3.0,97,0.00,,,0.31,Wunderground v.1.15,2013-03-31 12:43:00,
2013-03-31 08:46:00,55.3,54.5,29.90,South,182,3.0,3.0,97,0.00,,,0.31,Wunderground v.1.15,2013-03-31 12:46:00,
2013-03-31 08:48:00,55.4,54.6,29.90,South,182,1.0,3.0,97,0.00,,,0.31,Wunderground v.1.15,2013-03-31 12:48:00,
2013-03-31 08:49:00,55.4,54.6,29.90,South,182,0.0,3.0,97,0.00,,,0.31,Wunderground v.1.15,2013-03-31 12:49:00,
2013-03-31 08:52:00,55.4,54.6,29.90,South,182,1.0,3.0,97,0.00,,,0.31,Wunderground v.1.15,2013-03-31 12:52:00,
2013-03-31 08:53:00,55.4,54.6,29.90,South,182,5.0,5.0,97,0.00,,,0.31,Wunderground v.1.15,2013-03-31 12:53:00,
2013-03-31 08:54:00,55.4,54.6,29.90,South,182,4.0,5.0,97,0.00,,,0.31,Wunderground v.1.15,2013-03-31 12:54:00,
2013-03-31 08:57:00,55.6,54.8,29.90,South,182,0.0,5.0,97,0.00,,,0.31,Wunderground v.1.15,2013-03-31 12:57:00,
2013-03-31 08:58:00,55.6,54.8,29.90,South,182,1.0,5.0,97,0.00,,,0.31,Wunderground v.1.15,2013-03-31 12:58:00,
2013-03-31 08:59:00,55.7,54.9,29.90,South,182,2.0,5.0,97,0.00,,,0.31,Wunderground v.1.15,2013-03-31 12:59:00,
2013-03-31 09:02:00,55.7,54.9,29.90,South,182,1.0,4.0,97,0.00,,,0.31,Wunderground v.1.15,2013-03-31 13:02:00,
2013-03-31 09:03:00,55.8,55.0,29.90,South,182,4.0,4.0,97,0.00,,,0.31,Wunderground v.1.15,2013-03-31 13:03:00,
2013-03-31 09:04:00,55.8,55.0,29.90,South,182,1.0,4.0,97,0.00,,,0.31,Wunderground v.1.15,2013-03-31 13:04:00,
2013-03-31 09:08:00,55.8,55.0,29.89,South,182,4.0,5.0,97,0.00,,,0.31,Wunderground v.1.15,2013-03-31 13:08:00,
2013-03-31 09:09:00,55.9,55.1,29.89,South,182,3.0,5.0,97,0.00,,,0.31,Wunderground v.1.15,2013-03-31 13:09:00,
2013-03-31 09:13:00,56.0,54.9,29.90,South,182,4.0,5.0,96,0.00,,,0.31,Wunderground v.1.15,2013-03-31 13:13:00,
2013-03-31 09:14:00,56.1,55.0,29.89,South,182,3.0,5.0,96,0.00,,,0.31,Wunderground v.1.15,2013-03-31 13:14:00,
2013-03-31 09:19:00,56.4,55.6,29.89,South,182,1.0,5.0,97,0.00,,,0.31,Wunderground v.1.15,2013-03-31 13:19:00,
2013-03-31 09:24:00,56.6,55.5,29.90,South,182,2.0,5.0,96,0.00,,,0.31,Wunderground v.1.15,2013-03-31 13:24:00,
2013-03-31 09:29:00,56.7,55.6,29.90,South,182,6.0,7.0,96,0.00,,,0.31,Wunderground v.1.15,2013-03-31 13:29:00,
2013-03-31 09:30:00,56.7,55.6,29.90,South,182,4.0,5.0,96,0.00,,,0.31,Wunderground v.1.15,2013-03-31 13:30:00,
2013-03-31 09:35:00,56.9,55.8,29.90,South,182,0.0,7.0,96,0.00,,,0.31,Wunderground v.1.15,2013-03-31 13:35:00,
2013-03-31 09:40:00,57.0,55.6,29.90,South,182,3.0,3.0,95,0.00,,,0.31,Wunderground v.1.15,2013-03-31 13:40:00,
2013-03-31 09:45:00,57.1,55.7,29.89,South,182,3.0,11.0,95,0.00,,,0.31,Wunderground v.1.15,2013-03-31 13:45:00,
2013-03-31 09:50:00,57.3,55.6,29.89,South,182,3.0,4.0,94,0.00,,,0.31,Wunderground v.1.15,2013-03-31 13:50:00,
2013-03-31 09:52:00,57.4,55.7,29.90,South,182,6.0,6.0,94,0.00,,,0.31,Wunderground v.1.15,2013-03-31 13:52:00,
2013-03-31 09:56:00,57.5,55.8,29.90,South,182,1.0,6.0,94,0.00,,,0.31,Wunderground v.1.15,2013-03-31 13:56:00,
2013-03-31 09:58:00,57.6,55.9,29.90,South,182,1.0,6.0,94,0.00,,,0.31,Wunderground v.1.15,2013-03-31 13:58:00,
2013-03-31 09:59:00,57.7,56.0,29.90,South,182,1.0,6.0,94,0.00,,,0.31,Wunderground v.1.15,2013-03-31 13:59:00,
2013-03-31 10:01:00,57.7,56.0,29.90,South,182,3.0,4.0,94,0.00,,,0.31,Wunderground v.1.15,2013-03-31 14:01:00,
2013-03-31 10:03:00,57.7,56.0,29.90,South,182,1.0,6.0,94,0.00,,,0.31,Wunderground v.1.15,2013-03-31 14:03:00,
2013-03-31 10:06:00,57.8,55.8,29.89,South,182,3.0,7.0,93,0.00,,,0.31,Wunderground v.1.15,2013-03-31 14:06:00,
2013-03-31 10:08:00,57.8,55.8,29.89,South,182,4.0,10.0,93,0.00,,,0.31,Wunderground v.1.15,2013-03-31 14:08:00,
2013-03-31 10:09:00,57.8,55.8,29.89,South,182,6.0,10.0,93,0.00,,,0.31,Wunderground v.1.15,2013-03-31 14:09:00,
2013-03-31 10:11:00,57.9,55.9,29.89,South,182,2.0,8.0,93,0.00,,,0.31,Wunderground v.1.15,2013-03-31 14:11:00,
2013-03-31 10:13:00,58.0,56.0,29.89,South,182,3.0,8.0,93,0.00,,,0.31,Wunderground v.1.15,2013-03-31 14:13:00,
2013-03-31 10:14:00,58.0,56.0,29.89,South,182,4.0,8.0,93,0.00,,,0.31,Wunderground v.1.15,2013-03-31 14:14:00,
2013-03-31 10:16:00,58.2,56.2,29.89,South,182,3.0,8.0,93,0.00,,,0.31,Wunderground v.1.15,2013-03-31 14:16:00,
2013-03-31 10:18:00,58.2,56.2,29.89,South,182,7.0,10.0,93,0.00,,,0.31,Wunderground v.1.15,2013-03-31 14:18:00,
2013-03-31 10:19:00,58.2,55.9,29.89,South,182,3.0,10.0,92,0.00,,,0.31,Wunderground v.1.15,2013-03-31 14:19:00,
2013-03-31 10:23:00,58.4,56.1,29.89,South,182,3.0,4.0,92,0.00,,,0.31,Wunderground v.1.15,2013-03-31 14:23:00,
2013-03-31 10:24:00,58.5,56.2,29.89,South,182,4.0,6.0,92,0.00,,,0.31,Wunderground v.1.15,2013-03-31 14:24:00,
2013-03-31 10:28:00,58.6,56.0,29.89,South,182,2.0,9.0,91,0.00,,,0.31,Wunderground v.1.15,2013-03-31 14:28:00,
2013-03-31 10:29:00,58.6,56.0,29.89,South,182,4.0,9.0,91,0.00,,,0.31,Wunderground v.1.15,2013-03-31 14:29:00,
2013-03-31 10:30:00,58.7,56.1,29.88,South,182,4.0,4.0,91,0.00,,,0.31,Wunderground v.1.15,2013-03-31 14:30:00,
2013-03-31 10:33:00,58.9,56.0,29.88,South,190,3.0,10.0,90,0.00,,,0.31,Wunderground v.1.15,2013-03-31 14:33:00,
2013-03-31 10:34:00,58.9,56.0,29.88,South,190,6.0,10.0,90,0.00,,,0.31,Wunderground v.1.15,2013-03-31 14:34:00,
2013-03-31 10:35:00,58.9,55.7,29.88,South,190,5.0,10.0,89,0.00,,,0.31,Wunderground v.1.15,2013-03-31 14:35:00,
2013-03-31 10:39:00,59.0,56.7,29.88,South,190,1.0,10.0,92,0.00,,,0.31,Wunderground v.1.15,2013-03-31 14:39:00,
2013-03-31 10:40:00,59.0,56.1,29.88,South,190,5.0,6.0,90,0.00,,,0.31,Wunderground v.1.15,2013-03-31 14:40:00,
2013-03-31 10:41:00,59.0,56.1,29.88,South,190,2.0,6.0,90,0.00,,,0.31,Wunderground v.1.15,2013-03-31 14:41:00,
2013-03-31 10:44:00,59.0,55.8,29.87,South,190,4.0,6.0,89,0.00,,,0.31,Wunderground v.1.15,2013-03-31 14:44:00,
2013-03-31 10:46:00,59.0,55.8,29.87,South,190,4.0,6.0,89,0.00,,,0.31,Wunderground v.1.15,2013-03-31 14:46:00,
2013-03-31 10:49:00,59.0,55.4,29.87,South,190,6.0,6.0,88,0.00,,,0.31,Wunderground v.1.15,2013-03-31 14:49:00,
2013-03-31 10:50:00,59.0,55.4,29.87,South,190,2.0,4.0,88,0.00,,,0.31,Wunderground v.1.15,2013-03-31 14:50:00,
2013-03-31 10:51:00,59.0,55.8,29.87,South,190,7.0,7.0,89,0.00,,,0.31,Wunderground v.1.15,2013-03-31 14:51:00,
2013-03-31 10:55:00,59.3,56.1,29.87,South,190,3.0,7.0,89,0.00,,,0.31,Wunderground v.1.15,2013-03-31 14:55:00,
2013-03-31 10:56:00,59.3,55.1,29.87,South,190,1.0,7.0,86,0.00,,,0.31,Wunderground v.1.15,2013-03-31 14:56:00,
2013-03-31 10:57:00,59.4,55.5,29.88,South,190,1.0,7.0,87,0.00,,,0.31,Wunderground v.1.15,2013-03-31 14:57:00,
2013-03-31 11:00:00,59.5,55.6,29.88,South,190,3.0,4.0,87,0.00,,,0.31,Wunderground v.1.15,2013-03-31 15:00:00,
2013-03-31 11:01:00,59.5,55.6,29.88,South,190,7.0,7.0,87,0.00,,,0.31,Wunderground v.1.15,2013-03-31 15:01:00,
2013-03-31 11:02:00,59.6,55.7,29.87,South,190,3.0,7.0,87,0.00,,,0.31,Wunderground v.1.15,2013-03-31 15:02:00,
2013-03-31 11:03:00,59.5,55.6,29.87,South,190,6.0,7.0,87,0.00,,,0.31,Wunderground v.1.15,2013-03-31 15:03:00,
2013-03-31 11:05:00,59.5,55.6,29.88,South,190,5.0,7.0,87,0.00,,,0.31,Wunderground v.1.15,2013-03-31 15:05:00,
2013-03-31 11:06:00,59.5,55.6,29.88,South,190,1.0,7.0,87,0.00,,,0.31,Wunderground v.1.15,2013-03-31 15:06:00,
2013-03-31 11:08:00,59.5,55.9,29.88,South,190,4.0,7.0,88,0.00,,,0.31,Wunderground v.1.15,2013-03-31 15:08:00,
2013-03-31 11:10:00,59.5,55.6,29.88,South,190,11.0,11.0,87,0.00,,,0.31,Wunderground v.1.15,2013-03-31 15:10:00,
2013-03-31 11:12:00,59.5,55.3,29.88,South,190,1.0,11.0,86,0.00,,,0.31,Wunderground v.1.15,2013-03-31 15:12:00,
2013-03-31 11:13:00,59.5,55.6,29.88,South,190,3.0,11.0,87,0.00,,,0.31,Wunderground v.1.15,2013-03-31 15:13:00,
2013-03-31 11:15:00,59.5,55.6,29.88,South,190,0.0,11.0,87,0.00,,,0.31,Wunderground v.1.15,2013-03-31 15:15:00,
2013-03-31 11:17:00,59.5,55.9,29.88,South,190,3.0,11.0,88,0.00,,,0.31,Wunderground v.1.15,2013-03-31 15:17:00,
2013-03-31 11:18:00,59.5,55.3,29.88,South,190,3.0,11.0,86,0.00,,,0.31,Wunderground v.1.15,2013-03-31 15:18:00,
2013-03-31 11:22:00,59.4,55.2,29.89,South,190,9.0,9.0,86,0.00,,,0.31,Wunderground v.1.15,2013-03-31 15:22:00,
2013-03-31 11:24:00,59.2,55.0,29.89,South,190,6.0,9.0,86,0.00,,,0.31,Wunderground v.1.15,2013-03-31 15:24:00,
2013-03-31 11:27:00,59.1,55.2,29.89,South,190,1.0,10.0,87,0.00,,,0.31,Wunderground v.1.15,2013-03-31 15:27:00,
2013-03-31 11:28:00,59.0,55.1,29.89,South,190,2.0,10.0,87,0.00,,,0.31,Wunderground v.1.15,2013-03-31 15:28:00,
2013-03-31 11:29:00,59.0,55.1,29.89,South,190,5.0,12.0,87,0.00,,,0.31,Wunderground v.1.15,2013-03-31 15:29:00,
2013-03-31 11:32:00,59.0,55.1,29.89,South,190,6.0,6.0,87,0.00,,,0.31,Wunderground v.1.15,2013-03-31 15:32:00,
2013-03-31 11:33:00,59.0,54.8,29.89,South,190,9.0,9.0,86,0.00,,,0.31,Wunderground v.1.15,2013-03-31 15:33:00,
2013-03-31 11:34:00,59.0,54.8,29.89,South,190,2.0,10.0,86,0.00,,,0.31,Wunderground v.1.15,2013-03-31 15:34:00,
2013-03-31 11:37:00,59.0,54.8,29.90,South,190,3.0,10.0,86,0.00,,,0.31,Wunderground v.1.15,2013-03-31 15:37:00,
2013-03-31 11:39:00,59.0,54.8,29.89,South,190,3.0,10.0,86,0.00,,,0.31,Wunderground v.1.15,2013-03-31 15:39:00,
2013-03-31 11:40:00,59.0,54.8,29.89,South,190,4.0,6.0,86,0.00,,,0.31,Wunderground v.1.15,2013-03-31 15:40:00,
2013-03-31 11:42:00,59.0,55.1,29.89,South,190,2.0,9.0,87,0.00,,,0.31,Wunderground v.1.15,2013-03-31 15:42:00,
2013-03-31 11:44:00,59.0,55.1,29.90,South,190,5.0,9.0,87,0.00,,,0.31,Wunderground v.1.15,2013-03-31 15:44:00,
2013-03-31 11:45:00,59.0,54.8,29.89,South,190,1.0,9.0,86,0.00,,,0.31,Wunderground v.1.15,2013-03-31 15:45:00,
2013-03-31 11:47:00,59.0,55.1,29.89,South,190,5.0,9.0,87,0.00,,,0.31,Wunderground v.1.15,2013-03-31 15:47:00,
2013-03-31 11:49:00,59.0,55.1,29.89,South,190,2.0,9.0,87,0.00,,,0.31,Wunderground v.1.15,2013-03-31 15:49:00,
2013-03-31 11:50:00,59.0,55.1,29.89,South,190,4.0,6.0,87,0.00,,,0.31,Wunderground v.1.15,2013-03-31 15:50:00,
2013-03-31 11:53:00,58.9,55.0,29.89,South,190,4.0,7.0,87,0.00,,,0.31,Wunderground v.1.15,2013-03-31 15:53:00,
2013-03-31 11:54:00,58.9,55.0,29.89,South,190,2.0,10.0,87,0.00,,,0.31,Wunderground v.1.15,2013-03-31 15:54:00,
2013-03-31 11:55:00,58.9,55.4,29.88,South,190,4.0,10.0,88,0.00,,,0.31,Wunderground v.1.15,2013-03-31 15:55:00,
2013-03-31 11:58:00,58.9,55.0,29.88,South,190,5.0,10.0,87,0.00,,,0.31,Wunderground v.1.15,2013-03-31 15:58:00,
2013-03-31 12:00:00,59.0,55.1,29.88,South,190,3.0,4.0,87,0.00,,,0.31,Wunderground v.1.15,2013-03-31 16:00:00,
2013-03-31 12:02:00,59.0,55.1,29.88,South,190,4.0,13.0,87,0.00,,,0.31,Wunderground v.1.15,2013-03-31 16:02:00,
2013-03-31 12:03:00,59.0,55.1,29.88,South,190,6.0,13.0,87,0.00,,,0.31,Wunderground v.1.15,2013-03-31 16:03:00,
2013-03-31 12:05:00,59.0,55.1,29.88,South,190,3.0,13.0,87,0.00,,,0.31,Wunderground v.1.15,2013-03-31 16:05:00,
2013-03-31 12:07:00,59.0,55.1,29.88,South,190,3.0,13.0,87,0.00,,,0.31,Wunderground v.1.15,2013-03-31 16:07:00,
2013-03-31 12:08:00,59.0,55.1,29.88,South,190,1.0,13.0,87,0.00,,,0.31,Wunderground v.1.15,2013-03-31 16:08:00,
2013-03-31 12:10:00,59.4,55.8,29.88,South,190,3.0,5.0,88,0.00,,,0.31,Wunderground v.1.15,2013-03-31 16:10:00,
2013-03-31 12:12:00,59.7,55.8,29.88,South,191,5.0,9.0,87,0.00,,,0.31,Wunderground v.1.15,2013-03-31 16:12:00,
2013-03-31 12:13:00,59.7,55.8,29.88,South,190,4.0,9.0,87,0.00,,,0.31,Wunderground v.1.15,2013-03-31 16:13:00,
2013-03-31 12:14:00,59.8,55.9,29.88,South,190,4.0,9.0,87,0.00,,,0.31,Wunderground v.1.15,2013-03-31 16:14:00,
2013-03-31 12:16:00,60.1,55.9,29.88,SSW,194,3.0,13.0,86,0.00,,,0.31,Wunderground v.1.15,2013-03-31 16:16:00,
2013-03-31 12:17:00,60.5,56.3,29.88,SSW,194,5.0,13.0,86,0.00,,,0.31,Wunderground v.1.15,2013-03-31 16:17:00,
2013-03-31 12:18:00,60.5,56.3,29.88,SSW,194,5.0,13.0,86,0.00,,,0.31,Wunderground v.1.15,2013-03-31 16:18:00,
2013-03-31 12:20:00,61.0,56.5,29.88,SSW,194,3.0,5.0,85,0.00,,,0.31,Wunderground v.1.15,2013-03-31 16:20:00,
2013-03-31 12:21:00,61.3,56.4,29.88,SSW,194,2.0,5.0,84,0.00,,,0.31,Wunderground v.1.15,2013-03-31 16:21:00,
2013-03-31 12:23:00,61.4,56.5,29.88,SSW,194,4.0,6.0,84,0.00,,,0.31,Wunderground v.1.15,2013-03-31 16:23:00,
2013-03-31 12:25:00,61.5,56.0,29.87,SW,215,7.0,15.0,82,0.00,,,0.31,Wunderground v.1.15,2013-03-31 16:25:00,
2013-03-31 12:27:00,61.6,56.0,29.88,SW,214,4.0,15.0,82,0.00,,,0.31,Wunderground v.1.15,2013-03-31 16:27:00,
2013-03-31 12:28:00,61.7,56.1,29.87,SW,215,1.0,15.0,82,0.00,,,0.31,Wunderground v.1.15,2013-03-31 16:28:00,
2013-03-31 12:30:00,61.8,56.6,29.88,SW,215,5.0,6.0,83,0.00,,,0.31,Wunderground v.1.15,2013-03-31 16:30:00,
2013-03-31 12:33:00,61.7,56.1,29.88,SW,215,4.0,12.0,82,0.00,,,0.31,Wunderground v.1.15,2013-03-31 16:33:00,
2013-03-31 12:34:00,61.6,56.0,29.88,SW,215,12.0,12.0,82,0.00,,,0.31,Wunderground v.1.15,2013-03-31 16:34:00,
2013-03-31 12:36:00,61.3,55.4,29.87,SW,217,5.0,12.0,81,0.00,,,0.31,Wunderground v.1.15,2013-03-31 16:36:00,
2013-03-31 12:38:00,60.8,54.9,29.88,SW,220,3.0,13.0,81,0.00,,,0.31,Wunderground v.1.15,2013-03-31 16:38:00,
2013-03-31 12:39:00,60.8,54.9,29.88,SW,220,4.0,13.0,81,0.00,,,0.31,Wunderground v.1.15,2013-03-31 16:39:00,
2013-03-31 12:41:00,60.7,55.2,29.87,SW,220,4.0,10.0,82,0.00,,,0.31,Wunderground v.1.15,2013-03-31 16:41:00,
2013-03-31 12:43:00,60.6,55.1,29.87,SW,218,4.0,13.0,82,0.00,,,0.31,Wunderground v.1.15,2013-03-31 16:43:00,
2013-03-31 12:44:00,60.6,55.1,29.87,SW,219,5.0,13.0,82,0.00,,,0.31,Wunderground v.1.15,2013-03-31 16:44:00,
2013-03-31 12:46:00,60.7,55.5,29.87,SW,219,3.0,13.0,83,0.00,,,0.31,Wunderground v.1.15,2013-03-31 16:46:00,
2013-03-31 12:49:00,60.8,55.3,29.87,SW,219,1.0,13.0,82,0.00,,,0.31,Wunderground v.1.15,2013-03-31 16:49:00,
2013-03-31 12:52:00,61.2,56.0,29.86,SW,219,2.0,7.0,83,0.00,,,0.31,Wunderground v.1.15,2013-03-31 16:52:00,
2013-03-31 12:54:00,61.6,55.4,29.86,SW,227,6.0,10.0,80,0.00,,,0.31,Wunderground v.1.15,2013-03-31 16:54:00,
2013-03-31 12:55:00,61.6,55.4,29.86,SW,226,9.0,11.0,80,0.00,,,0.31,Wunderground v.1.15,2013-03-31 16:55:00,
2013-03-31 12:57:00,61.8,55.6,29.86,SW,224,6.0,11.0,80,0.00,,,0.31,Wunderground v.1.15,2013-03-31 16:57:00,
2013-03-31 12:59:00,61.9,55.3,29.86,SW,223,6.0,12.0,79,0.00,,,0.31,Wunderground v.1.15,2013-03-31 16:59:00,
2013-03-31 13:00:00,61.9,55.3,29.86,SW,224,7.0,10.0,79,0.00,,,0.31,Wunderground v.1.15,2013-03-31 17:00:00,
2013-03-31 13:02:00,62.2,56.0,29.86,SW,223,0.0,10.0,80,0.00,,,0.31,Wunderground v.1.15,2013-03-31 17:02:00,
2013-03-31 13:05:00,62.6,55.6,29.86,SW,224,5.0,11.0,78,0.00,,,0.31,Wunderground v.1.15,2013-03-31 17:05:00,
2013-03-31 13:07:00,62.8,55.8,29.85,SW,223,3.0,11.0,78,0.00,,,0.31,Wunderground v.1.15,2013-03-31 17:07:00,
2013-03-31 13:10:00,63.0,56.0,29.85,SW,224,6.0,8.0,78,0.00,,,0.31,Wunderground v.1.15,2013-03-31 17:10:00,
2013-03-31 13:11:00,63.1,55.8,29.85,SW,224,7.0,8.0,77,0.00,,,0.31,Wunderground v.1.15,2013-03-31 17:11:00,
2013-03-31 13:13:00,63.1,55.4,29.86,SW,224,4.0,9.0,76,0.00,,,0.31,Wunderground v.1.15,2013-03-31 17:13:00,
2013-03-31 13:15:00,63.1,55.4,29.85,SW,223,4.0,9.0,76,0.00,,,0.31,Wunderground v.1.15,2013-03-31 17:15:00,
2013-03-31 13:16:00,63.2,55.5,29.85,SW,225,8.0,9.0,76,0.00,,,0.31,Wunderground v.1.15,2013-03-31 17:16:00,
2013-03-31 13:18:00,63.3,55.2,29.85,SW,225,4.0,10.0,75,0.00,,,0.31,Wunderground v.1.15,2013-03-31 17:18:00,
2013-03-31 13:20:00,63.6,55.9,29.85,SW,225,5.0,9.0,76,0.00,,,0.31,Wunderground v.1.15,2013-03-31 17:20:00,
2013-03-31 13:22:00,63.8,55.7,29.85,SW,225,5.0,9.0,75,0.00,,,0.31,Wunderground v.1.15,2013-03-31 17:22:00,
2013-03-31 13:23:00,63.8,55.4,29.85,SW,225,2.0,9.0,74,0.00,,,0.31,Wunderground v.1.15,2013-03-31 17:23:00,
2013-03-31 13:24:00,63.8,55.4,29.85,SW,225,3.0,9.0,74,0.00,,,0.31,Wunderground v.1.15,2013-03-31 17:24:00,
2013-03-31 13:25:00,63.9,55.4,29.85,SW,225,6.0,9.0,74,0.00,,,0.31,Wunderground v.1.15,2013-03-31 17:25:00,
2013-03-31 13:28:00,63.9,55.4,29.85,SW,225,2.0,9.0,74,0.00,,,0.31,Wunderground v.1.15,2013-03-31 17:28:00,
2013-03-31 13:29:00,64.0,55.9,29.85,SW,225,2.0,9.0,75,0.00,,,0.31,Wunderground v.1.15,2013-03-31 17:29:00,
2013-03-31 13:30:00,64.1,56.0,29.85,SW,225,3.0,9.0,75,0.00,,,0.31,Wunderground v.1.15,2013-03-31 17:30:00,
2013-03-31 13:33:00,64.2,55.7,29.85,SW,225,3.0,9.0,74,0.00,,,0.31,Wunderground v.1.15,2013-03-31 17:33:00,
2013-03-31 13:34:00,64.3,55.1,29.85,SW,225,3.0,9.0,72,0.00,,,0.31,Wunderground v.1.15,2013-03-31 17:34:00,
2013-03-31 13:35:00,64.3,55.1,29.85,SW,225,3.0,9.0,72,0.00,,,0.31,Wunderground v.1.15,2013-03-31 17:35:00,
2013-03-31 13:36:00,64.3,55.1,29.85,SW,225,3.0,9.0,72,0.00,,,0.31,Wunderground v.1.15,2013-03-31 17:36:00,
2013-03-31 13:38:00,64.1,54.5,29.85,SW,225,4.0,9.0,71,0.00,,,0.31,Wunderground v.1.15,2013-03-31 17:38:00,
2013-03-31 13:40:00,63.9,54.3,29.85,SW,225,2.0,4.0,71,0.00,,,0.31,Wunderground v.1.15,2013-03-31 17:40:00,
2013-03-31 13:41:00,63.8,55.4,29.85,SW,225,6.0,6.0,74,0.00,,,0.31,Wunderground v.1.15,2013-03-31 17:41:00,
2013-03-31 13:44:00,63.6,55.2,29.84,SW,225,4.0,6.0,74,0.00,,,0.31,Wunderground v.1.15,2013-03-31 17:44:00,
2013-03-31 13:45:00,63.6,55.2,29.84,SW,225,2.0,6.0,74,0.00,,,0.31,Wunderground v.1.15,2013-03-31 17:45:00,
2013-03-31 13:46:00,63.6,54.8,29.84,SW,225,5.0,7.0,73,0.00,,,0.31,Wunderground v.1.15,2013-03-31 17:46:00,
2013-03-31 13:47:00,63.5,54.7,29.85,SW,225,2.0,7.0,73,0.00,,,0.31,Wunderground v.1.15,2013-03-31 17:47:00,
2013-03-31 13:50:00,63.4,55.0,29.85,SW,225,3.0,4.0,74,0.00,,,0.31,Wunderground v.1.15,2013-03-31 17:50:00,
2013-03-31 13:51:00,63.4,55.3,29.85,SW,225,2.0,4.0,75,0.00,,,0.31,Wunderground v.1.15,2013-03-31 17:51:00,
2013-03-31 13:52:00,63.4,55.3,29.85,SW,225,7.0,7.0,75,0.00,,,0.31,Wunderground v.1.15,2013-03-31 17:52:00,
2013-03-31 13:55:00,63.4,55.0,29.85,SW,225,4.0,8.0,74,0.00,,,0.31,Wunderground v.1.15,2013-03-31 17:55:00,
2013-03-31 13:56:00,63.4,55.0,29.85,SW,225,7.0,11.0,74,0.00,,,0.31,Wunderground v.1.15,2013-03-31 17:56:00,
2013-03-31 13:57:00,63.3,54.9,29.85,SW,225,3.0,11.0,74,0.00,,,0.31,Wunderground v.1.15,2013-03-31 17:57:00,
2013-03-31 14:00:00,63.3,55.2,29.85,SW,225,10.0,10.0,75,0.00,,,0.31,Wunderground v.1.15,2013-03-31 18:00:00,
2013-03-31 14:01:00,63.3,54.9,29.85,SW,225,3.0,10.0,74,0.00,,,0.31,Wunderground v.1.15,2013-03-31 18:01:00,
2013-03-31 14:02:00,63.3,54.9,29.85,SW,225,5.0,10.0,74,0.00,,,0.31,Wunderground v.1.15,2013-03-31 18:02:00,
2013-03-31 14:03:00,63.3,55.6,29.85,SW,225,1.0,10.0,76,0.00,,,0.31,Wunderground v.1.15,2013-03-31 18:03:00,
2013-03-31 14:05:00,63.5,55.1,29.85,SW,225,6.0,10.0,74,0.00,,,0.31,Wunderground v.1.15,2013-03-31 18:05:00,
2013-03-31 14:07:00,63.4,55.0,29.85,SW,225,5.0,11.0,74,0.00,,,0.31,Wunderground v.1.15,2013-03-31 18:07:00,
2013-03-31 14:08:00,63.4,55.0,29.85,SW,225,9.0,11.0,74,0.00,,,0.31,Wunderground v.1.15,2013-03-31 18:08:00,
2013-03-31 14:11:00,63.1,54.3,29.85,SW,224,5.0,9.0,73,0.00,,,0.31,Wunderground v.1.15,2013-03-31 18:11:00,
2013-03-31 14:12:00,63.0,54.6,29.85,SW,223,3.0,10.0,74,0.00,,,0.31,Wunderground v.1.15,2013-03-31 18:12:00,
2013-03-31 14:13:00,62.9,54.5,29.85,SW,223,4.0,10.0,74,0.00,,,0.31,Wunderground v.1.15,2013-03-31 18:13:00,
2013-03-31 14:16:00,62.7,54.3,29.85,SW,223,4.0,10.0,74,0.00,,,0.31,Wunderground v.1.15,2013-03-31 18:16:00,
2013-03-31 14:18:00,62.6,54.2,29.85,SW,223,3.0,10.0,74,0.00,,,0.31,Wunderground v.1.15,2013-03-31 18:18:00,
2013-03-31 14:22:00,62.4,54.0,29.85,SW,218,6.0,14.0,74,0.00,,,0.31,Wunderground v.1.15,2013-03-31 18:22:00,
2013-03-31 14:24:00,62.3,54.3,29.85,SW,217,5.0,14.0,75,0.00,,,0.31,Wunderground v.1.15,2013-03-31 18:24:00,
2013-03-31 14:25:00,62.2,53.8,29.85,SW,217,6.0,14.0,74,0.00,,,0.31,Wunderground v.1.15,2013-03-31 18:25:00,
2013-03-31 14:27:00,62.1,54.1,29.85,SW,217,3.0,14.0,75,0.00,,,0.31,Wunderground v.1.15,2013-03-31 18:27:00,
2013-03-31 14:29:00,62.0,54.0,29.84,SW,218,6.0,14.0,75,0.00,,,0.31,Wunderground v.1.15,2013-03-31 18:29:00,
2013-03-31 14:30:00,62.0,54.0,29.84,SW,218,6.0,6.0,75,0.00,,,0.31,Wunderground v.1.15,2013-03-31 18:30:00,
2013-03-31 14:33:00,61.9,54.2,29.85,SW,218,3.0,9.0,76,0.00,,,0.31,Wunderground v.1.15,2013-03-31 18:33:00,
2013-03-31 14:34:00,61.9,54.2,29.85,SW,218,4.0,9.0,76,0.00,,,0.31,Wunderground v.1.15,2013-03-31 18:34:00,
2013-03-31 14:35:00,61.8,54.9,29.84,SW,218,3.0,9.0,78,0.00,,,0.31,Wunderground v.1.15,2013-03-31 18:35:00,
2013-03-31 14:39:00,61.5,54.9,29.84,SW,218,4.0,9.0,79,0.00,,,0.31,Wunderground v.1.15,2013-03-31 18:39:00,
2013-03-31 14:40:00,61.4,55.2,29.84,SW,218,3.0,4.0,80,0.00,,,0.31,Wunderground v.1.15,2013-03-31 18:40:00,
2013-03-31 14:42:00,61.3,55.4,29.84,SW,218,4.0,10.0,81,0.00,,,0.31,Wunderground v.1.15,2013-03-31 18:42:00,
2013-03-31 14:44:00,61.2,55.0,29.84,SW,218,5.0,12.0,80,0.00,,,0.31,Wunderground v.1.15,2013-03-31 18:44:00,
2013-03-31 14:45:00,61.1,54.9,29.84,SW,219,3.0,12.0,80,0.00,,,0.31,Wunderground v.1.15,2013-03-31 18:45:00,
2013-03-31 14:47:00,61.0,55.1,29.85,SW,219,3.0,12.0,81,0.00,,,0.31,Wunderground v.1.15,2013-03-31 18:47:00,
2013-03-31 14:49:00,60.9,55.4,29.84,SW,219,6.0,12.0,82,0.00,,,0.32,Wunderground v.1.15,2013-03-31 18:49:00,
2013-03-31 14:51:00,60.8,55.3,29.85,SW,219,6.0,6.0,82,0.00,,,0.32,Wunderground v.1.15,2013-03-31 18:51:00,
2013-03-31 14:52:00,60.7,55.2,29.84,SW,220,5.0,7.0,82,0.00,,,0.32,Wunderground v.1.15,2013-03-31 18:52:00,
2013-03-31 14:54:00,60.5,55.0,29.84,SW,220,3.0,7.0,82,0.00,,,0.32,Wunderground v.1.15,2013-03-31 18:54:00,
2013-03-31 14:56:00,60.4,55.5,29.84,SW,219,9.0,9.0,84,0.00,,,0.32,Wunderground v.1.15,2013-03-31 18:56:00,
2013-03-31 14:57:00,60.3,55.1,29.84,SW,219,4.0,9.0,83,0.00,,,0.32,Wunderground v.1.15,2013-03-31 18:57:00,
2013-03-31 14:59:00,60.2,55.7,29.84,SW,220,3.0,9.0,85,0.00,,,0.32,Wunderground v.1.15,2013-03-31 18:59:00,
2013-03-31 15:02:00,60.1,55.6,29.84,SW,220,3.0,6.0,85,0.05,,,0.32,Wunderground v.1.15,2013-03-31 19:02:00,
2013-03-31 15:03:00,59.9,55.7,29.84,SW,221,4.0,6.0,86,0.05,,,0.33,Wunderground v.1.15,2013-03-31 19:03:00,
2013-03-31 15:04:00,59.9,55.7,29.84,SW,219,9.0,9.0,86,0.05,,,0.33,Wunderground v.1.15,2013-03-31 19:04:00,
2013-03-31 15:05:00,59.9,55.7,29.84,SW,221,5.0,9.0,86,0.05,,,0.33,Wunderground v.1.15,2013-03-31 19:05:00,
2013-03-31 15:07:00,59.7,55.8,29.84,SW,221,3.0,9.0,87,0.05,,,0.33,Wunderground v.1.15,2013-03-31 19:07:00,
2013-03-31 15:09:00,59.7,56.1,29.84,SW,221,5.0,10.0,88,0.05,,,0.33,Wunderground v.1.15,2013-03-31 19:09:00,
2013-03-31 15:10:00,59.6,56.0,29.84,SW,221,1.0,4.0,88,0.05,,,0.33,Wunderground v.1.15,2013-03-31 19:10:00,
2013-03-31 15:12:00,59.6,56.4,29.84,SW,221,5.0,6.0,89,0.05,,,0.33,Wunderground v.1.15,2013-03-31 19:12:00,
2013-03-31 15:14:00,59.6,56.0,29.84,SW,221,4.0,6.0,88,0.05,,,0.33,Wunderground v.1.15,2013-03-31 19:14:00,
2013-03-31 15:15:00,59.6,56.4,29.84,SW,221,5.0,6.0,89,0.05,,,0.34,Wunderground v.1.15,2013-03-31 19:15:00,
2013-03-31 15:17:00,59.6,56.7,29.83,SW,221,0.0,6.0,90,0.05,,,0.34,Wunderground v.1.15,2013-03-31 19:17:00,
2013-03-31 15:19:00,59.7,56.8,29.84,SW,221,3.0,6.0,90,0.05,,,0.34,Wunderground v.1.15,2013-03-31 19:19:00,
2013-03-31 15:21:00,59.6,56.4,29.84,SW,221,3.0,5.0,89,0.05,,,0.34,Wunderground v.1.15,2013-03-31 19:21:00,
2013-03-31 15:22:00,59.6,56.4,29.84,SW,221,5.0,5.0,89,0.05,,,0.34,Wunderground v.1.15,2013-03-31 19:22:00,
2013-03-31 15:24:00,59.6,56.7,29.84,SW,221,6.0,12.0,90,0.05,,,0.34,Wunderground v.1.15,2013-03-31 19:24:00,
2013-03-31 15:25:00,59.6,56.4,29.84,SW,221,4.0,12.0,89,0.05,,,0.34,Wunderground v.1.15,2013-03-31 19:25:00,
2013-03-31 15:26:00,59.6,56.4,29.84,SW,221,9.0,12.0,89,0.05,,,0.34,Wunderground v.1.15,2013-03-31 19:26:00,
2013-03-31 15:27:00,59.6,56.4,29.83,SW,221,6.0,12.0,89,0.05,,,0.34,Wunderground v.1.15,2013-03-31 19:27:00,
2013-03-31 15:29:00,59.5,56.3,29.82,SW,221,3.0,4.0,89,0.04,,,0.34,Wunderground v.1.15,2013-03-31 19:29:00,
2013-03-31 15:30:00,59.5,56.3,29.82,SW,221,4.0,6.0,89,0.04,,,0.34,Wunderground v.1.15,2013-03-31 19:30:00,
2013-03-31 15:32:00,59.5,56.3,29.81,SW,220,3.0,8.0,89,0.00,,,0.34,Wunderground v.1.15,2013-03-31 19:32:00,
2013-03-31 15:33:00,59.5,56.3,29.80,SW,219,0.0,8.0,89,0.00,,,0.34,Wunderground v.1.15,2013-03-31 19:33:00,
2013-03-31 15:35:00,59.5,56.6,29.80,SW,220,0.0,8.0,90,0.00,,,0.34,Wunderground v.1.15,2013-03-31 19:35:00,
2013-03-31 15:38:00,59.7,56.8,29.80,SW,219,3.0,8.0,90,0.00,,,0.34,Wunderground v.1.15,2013-03-31 19:38:00,
2013-03-31 15:40:00,59.8,56.9,29.81,SW,219,2.0,2.0,90,0.00,,,0.34,Wunderground v.1.15,2013-03-31 19:40:00,
2013-03-31 15:42:00,59.8,56.9,29.81,SW,220,5.0,5.0,90,0.00,,,0.34,Wunderground v.1.15,2013-03-31 19:42:00,
2013-03-31 15:43:00,59.9,56.6,29.82,SW,220,3.0,5.0,89,0.00,,,0.34,Wunderground v.1.15,2013-03-31 19:43:00,
2013-03-31 15:46:00,60.1,56.8,29.82,SW,221,5.0,6.0,89,0.00,,,0.34,Wunderground v.1.15,2013-03-31 19:46:00,
2013-03-31 15:48:00,60.2,56.9,29.82,SW,221,5.0,6.0,89,0.00,,,0.34,Wunderground v.1.15,2013-03-31 19:48:00,
2013-03-31 15:52:00,60.4,57.1,29.83,SW,221,4.0,6.0,89,0.00,,,0.34,Wunderground v.1.15,2013-03-31 19:52:00,
2013-03-31 15:53:00,60.5,57.2,29.83,SW,221,5.0,6.0,89,0.00,,,0.34,Wunderground v.1.15,2013-03-31 19:53:00,
2013-03-31 15:54:00,60.5,57.2,29.83,SW,221,1.0,6.0,89,0.00,,,0.34,Wunderground v.1.15,2013-03-31 19:54:00,
2013-03-31 15:57:00,60.7,57.1,29.82,SW,222,2.0,6.0,88,0.00,,,0.34,Wunderground v.1.15,2013-03-31 19:57:00,
2013-03-31 15:58:00,60.7,57.4,29.82,SW,222,4.0,6.0,89,0.00,,,0.34,Wunderground v.1.15,2013-03-31 19:58:00,
2013-03-31 15:59:00,60.7,57.1,29.82,SW,222,4.0,7.0,88,0.00,,,0.34,Wunderground v.1.15,2013-03-31 19:59:00,
2013-03-31 16:02:00,60.8,57.2,29.82,SW,223,6.0,9.0,88,0.00,,,0.34,Wunderground v.1.15,2013-03-31 20:02:00,
2013-03-31 16:04:00,60.9,57.3,29.82,SW,224,3.0,9.0,88,0.00,,,0.34,Wunderground v.1.15,2013-03-31 20:04:00,
2013-03-31 16:05:00,60.9,57.3,29.83,SW,225,5.0,9.0,88,0.00,,,0.34,Wunderground v.1.15,2013-03-31 20:05:00,
2013-03-31 16:07:00,61.0,57.4,29.83,SW,224,6.0,9.0,88,0.00,,,0.34,Wunderground v.1.15,2013-03-31 20:07:00,
2013-03-31 16:09:00,61.1,57.5,29.83,SW,224,6.0,9.0,88,0.00,,,0.34,Wunderground v.1.15,2013-03-31 20:09:00,
2013-03-31 16:10:00,61.1,57.2,29.83,SW,224,4.0,5.0,87,0.00,,,0.34,Wunderground v.1.15,2013-03-31 20:10:00,
2013-03-31 16:12:00,61.2,57.3,29.83,SW,224,5.0,7.0,87,0.00,,,0.34,Wunderground v.1.15,2013-03-31 20:12:00,
2013-03-31 16:14:00,61.2,57.3,29.83,SW,224,6.0,7.0,87,0.00,,,0.34,Wunderground v.1.15,2013-03-31 20:14:00,
2013-03-31 16:15:00,61.3,57.4,29.83,SW,223,6.0,7.0,87,0.00,,,0.34,Wunderground v.1.15,2013-03-31 20:15:00,
2013-03-31 16:16:00,61.3,57.4,29.83,SW,223,3.0,7.0,87,0.00,,,0.34,Wunderground v.1.15,2013-03-31 20:16:00,
2013-03-31 16:18:00,61.3,57.4,29.83,SW,224,6.0,10.0,87,0.00,,,0.34,Wunderground v.1.15,2013-03-31 20:18:00,
2013-03-31 16:20:00,61.3,57.4,29.83,SW,225,7.0,7.0,87,0.00,,,0.34,Wunderground v.1.15,2013-03-31 20:20:00,
2013-03-31 16:21:00,61.3,57.1,29.83,SW,225,3.0,10.0,86,0.00,,,0.34,Wunderground v.1.15,2013-03-31 20:21:00,
2013-03-31 16:23:00,61.3,57.4,29.83,SW,225,3.0,10.0,87,0.00,,,0.34,Wunderground v.1.15,2013-03-31 20:23:00,
2013-03-31 16:25:00,61.2,57.0,29.82,SW,225,3.0,10.0,86,0.00,,,0.34,Wunderground v.1.15,2013-03-31 20:25:00,
2013-03-31 16:27:00,61.1,56.9,29.82,SW,225,3.0,10.0,86,0.00,,,0.34,Wunderground v.1.15,2013-03-31 20:27:00,
2013-03-31 16:28:00,61.1,56.9,29.82,SW,225,1.0,10.0,86,0.00,,,0.34,Wunderground v.1.15,2013-03-31 20:28:00,
2013-03-31 16:30:00,61.0,56.8,29.82,SW,225,6.0,6.0,86,0.00,,,0.34,Wunderground v.1.15,2013-03-31 20:30:00,
2013-03-31 16:32:00,60.9,57.0,29.83,SW,225,4.0,6.0,87,0.00,,,0.34,Wunderground v.1.15,2013-03-31 20:32:00,
2013-03-31 16:35:00,60.8,57.2,29.83,SW,225,2.0,6.0,88,1.69,,,0.38,Wunderground v.1.15,2013-03-31 20:35:00,
2013-03-31 16:36:00,60.7,57.1,29.83,SW,225,4.0,6.0,88,0.44,,,0.38,Wunderground v.1.15,2013-03-31 20:36:00,
2013-03-31 16:39:00,60.2,56.9,29.82,SW,225,1.0,6.0,89,0.39,,,0.41,Wunderground v.1.15,2013-03-31 20:39:00,
2013-03-31 16:40:00,60.0,57.1,29.82,SW,225,3.0,4.0,90,0.34,,,0.41,Wunderground v.1.15,2013-03-31 20:40:00,
2013-03-31 16:41:00,59.9,57.0,29.83,SW,225,5.0,5.0,90,0.21,,,0.41,Wunderground v.1.15,2013-03-31 20:41:00,
2013-03-31 16:43:00,59.6,56.7,29.82,SW,225,2.0,5.0,90,0.13,,,0.41,Wunderground v.1.15,2013-03-31 20:43:00,
2013-03-31 16:44:00,59.6,57.0,29.82,SW,225,4.0,5.0,91,0.10,,,0.41,Wunderground v.1.15,2013-03-31 20:44:00,
2013-03-31 16:45:00,59.4,56.8,29.82,SW,225,2.0,5.0,91,0.08,,,0.41,Wunderground v.1.15,2013-03-31 20:45:00,
2013-03-31 16:46:00,59.4,56.8,29.82,SW,225,1.0,5.0,91,0.07,,,0.41,Wunderground v.1.15,2013-03-31 20:46:00,
2013-03-31 16:48:00,59.4,57.1,29.82,SW,225,2.0,5.0,92,0.06,,,0.41,Wunderground v.1.15,2013-03-31 20:48:00,
2013-03-31 16:49:00,59.4,57.1,29.82,SW,225,4.0,5.0,92,0.05,,,0.41,Wunderground v.1.15,2013-03-31 20:49:00,
2013-03-31 16:51:00,59.5,57.2,29.82,SW,225,5.0,6.0,92,0.05,,,0.41,Wunderground v.1.15,2013-03-31 20:51:00,
2013-03-31 16:52:00,59.6,57.6,29.82,SW,225,3.0,6.0,93,0.04,,,0.41,Wunderground v.1.15,2013-03-31 20:52:00,
2013-03-31 16:53:00,59.7,57.7,29.82,SW,225,5.0,6.0,93,0.04,,,0.41,Wunderground v.1.15,2013-03-31 20:53:00,
2013-03-31 16:55:00,59.8,57.8,29.82,SW,225,6.0,9.0,93,0.04,,,0.41,Wunderground v.1.15,2013-03-31 20:55:00,
2013-03-31 16:56:00,59.9,57.6,29.82,SW,225,4.0,9.0,92,0.00,,,0.41,Wunderground v.1.15,2013-03-31 20:56:00,
2013-03-31 16:58:00,60.1,57.8,29.82,SW,226,4.0,9.0,92,0.00,,,0.41,Wunderground v.1.15,2013-03-31 20:58:00,
2013-03-31 17:00:00,60.3,58.3,29.82,SW,226,2.0,4.0,93,0.00,,,0.41,Wunderground v.1.15,2013-03-31 21:00:00,
2013-03-31 17:01:00,60.4,58.4,29.82,SW,226,4.0,4.0,93,0.00,,,0.41,Wunderground v.1.15,2013-03-31 21:01:00,
2013-03-31 17:03:00,60.5,58.2,29.82,SW,225,5.0,13.0,92,0.00,,,0.41,Wunderground v.1.15,2013-03-31 21:03:00,
2013-03-31 17:04:00,60.6,58.0,29.82,SW,225,5.0,13.0,91,0.00,,,0.41,Wunderground v.1.15,2013-03-31 21:04:00,
2013-03-31 17:05:00,60.6,58.0,29.82,SW,221,11.0,14.0,91,0.00,,,0.41,Wunderground v.1.15,2013-03-31 21:05:00,
2013-03-31 17:07:00,60.6,57.7,29.82,SW,225,10.0,14.0,90,0.00,,,0.41,Wunderground v.1.15,2013-03-31 21:07:00,
2013-03-31 17:08:00,60.6,57.7,29.82,SW,225,7.0,14.0,90,0.00,,,0.41,Wunderground v.1.15,2013-03-31 21:08:00,
2013-03-31 17:09:00,60.6,57.7,29.82,SW,225,6.0,14.0,90,0.00,,,0.41,Wunderground v.1.15,2013-03-31 21:09:00,
2013-03-31 17:10:00,60.6,57.7,29.82,SW,225,5.0,9.0,90,0.00,,,0.41,Wunderground v.1.15,2013-03-31 21:10:00,
2013-03-31 17:12:00,60.7,57.7,29.82,SW,225,5.0,10.0,90,0.00,,,0.41,Wunderground v.1.15,2013-03-31 21:12:00,
2013-03-31 17:14:00,60.7,57.7,29.82,SW,225,2.0,11.0,90,0.00,,,0.41,Wunderground v.1.15,2013-03-31 21:14:00,
2013-03-31 17:15:00,60.6,57.7,29.82,SW,225,5.0,11.0,90,0.00,,,0.41,Wunderground v.1.15,2013-03-31 21:15:00,
2013-03-31 17:17:00,60.6,57.7,29.82,SW,225,6.0,11.0,90,0.00,,,0.41,Wunderground v.1.15,2013-03-31 21:17:00,
2013-03-31 17:19:00,60.6,57.7,29.82,SW,229,6.0,11.0,90,0.00,,,0.41,Wunderground v.1.15,2013-03-31 21:19:00,
2013-03-31 17:20:00,60.6,57.7,29.81,SW,226,9.0,9.0,90,0.00,,,0.41,Wunderground v.1.15,2013-03-31 21:20:00,
2013-03-31 17:23:00,60.5,57.6,29.82,SW,226,7.0,12.0,90,0.00,,,0.41,Wunderground v.1.15,2013-03-31 21:23:00,
2013-03-31 17:24:00,60.5,57.6,29.82,SW,226,5.0,12.0,90,0.00,,,0.41,Wunderground v.1.15,2013-03-31 21:24:00,
2013-03-31 17:25:00,60.5,57.6,29.82,SW,225,4.0,12.0,90,0.00,,,0.41,Wunderground v.1.15,2013-03-31 21:25:00,
2013-03-31 17:26:00,60.5,57.6,29.82,SW,225,3.0,12.0,90,0.00,,,0.41,Wunderground v.1.15,2013-03-31 21:26:00,
2013-03-31 17:28:00,60.5,57.6,29.81,SW,226,4.0,12.0,90,0.00,,,0.41,Wunderground v.1.15,2013-03-31 21:28:00,
2013-03-31 17:30:00,60.6,57.7,29.81,SW,226,3.0,6.0,90,0.00,,,0.41,Wunderground v.1.15,2013-03-31 21:30:00,
2013-03-31 17:31:00,60.6,57.7,29.82,SW,226,4.0,11.0,90,0.00,,,0.41,Wunderground v.1.15,2013-03-31 21:31:00,
2013-03-31 17:32:00,60.6,57.7,29.82,SW,226,2.0,11.0,90,0.00,,,0.41,Wunderground v.1.15,2013-03-31 21:32:00,
2013-03-31 17:34:00,60.7,57.7,29.81,SW,226,2.0,11.0,90,0.00,,,0.41,Wunderground v.1.15,2013-03-31 21:34:00,
2013-03-31 17:35:00,60.7,57.7,29.82,SW,226,2.0,11.0,90,0.00,,,0.41,Wunderground v.1.15,2013-03-31 21:35:00,
2013-03-31 17:37:00,60.7,57.7,29.81,SW,226,10.0,11.0,90,0.00,,,0.41,Wunderground v.1.15,2013-03-31 21:37:00,
2013-03-31 17:38:00,60.7,57.7,29.81,SW,226,2.0,11.0,90,0.00,,,0.41,Wunderground v.1.15,2013-03-31 21:38:00,
2013-03-31 17:39:00,60.8,57.8,29.81,SW,226,1.0,11.0,90,0.00,,,0.41,Wunderground v.1.15,2013-03-31 21:39:00,
2013-03-31 17:41:00,60.8,57.8,29.81,SW,226,3.0,4.0,90,0.00,,,0.41,Wunderground v.1.15,2013-03-31 21:41:00,
2013-03-31 17:42:00,60.9,57.6,29.81,SW,226,1.0,5.0,89,0.00,,,0.41,Wunderground v.1.15,2013-03-31 21:42:00,
2013-03-31 17:43:00,60.9,57.9,29.81,SW,225,1.0,5.0,90,0.00,,,0.41,Wunderground v.1.15,2013-03-31 21:43:00,
2013-03-31 17:45:00,60.9,57.6,29.81,SW,226,2.0,8.0,89,0.00,,,0.41,Wunderground v.1.15,2013-03-31 21:45:00,
2013-03-31 17:48:00,61.0,57.7,29.81,SW,226,3.0,8.0,89,0.00,,,0.41,Wunderground v.1.15,2013-03-31 21:48:00,
2013-03-31 17:50:00,61.0,57.7,29.81,SW,226,3.0,5.0,89,0.00,,,0.41,Wunderground v.1.15,2013-03-31 21:50:00,
2013-03-31 17:53:00,61.1,57.8,29.81,SW,226,0.0,6.0,89,0.00,,,0.41,Wunderground v.1.15,2013-03-31 21:53:00,
2013-03-31 17:56:00,61.1,57.8,29.80,SW,226,6.0,6.0,89,0.00,,,0.41,Wunderground v.1.15,2013-03-31 21:56:00,
2013-03-31 17:58:00,61.1,57.5,29.80,SW,226,2.0,7.0,88,0.00,,,0.41,Wunderground v.1.15,2013-03-31 21:58:00,
2013-03-31 18:01:00,61.1,57.2,29.81,SW,226,3.0,5.0,87,0.00,,,0.41,Wunderground v.1.15,2013-03-31 22:01:00,
2013-03-31 18:03:00,61.1,57.2,29.80,SW,226,2.0,6.0,87,0.00,,,0.41,Wunderground v.1.15,2013-03-31 22:03:00,
2013-03-31 18:04:00,61.0,57.1,29.80,SW,226,1.0,6.0,87,0.00,,,0.41,Wunderground v.1.15,2013-03-31 22:04:00,
2013-03-31 18:06:00,61.0,57.4,29.80,SW,226,4.0,6.0,88,0.00,,,0.41,Wunderground v.1.15,2013-03-31 22:06:00,
2013-03-31 18:09:00,61.1,57.2,29.80,SW,226,0.0,6.0,87,0.00,,,0.41,Wunderground v.1.15,2013-03-31 22:09:00,
2013-03-31 18:10:00,61.1,57.2,29.80,SW,226,3.0,3.0,87,0.00,,,0.41,Wunderground v.1.15,2013-03-31 22:10:00,
2013-03-31 18:11:00,61.1,57.2,29.80,SW,226,4.0,5.0,87,0.00,,,0.41,Wunderground v.1.15,2013-03-31 22:11:00,
2013-03-31 18:14:00,61.2,57.3,29.81,SW,226,2.0,5.0,87,0.00,,,0.41,Wunderground v.1.15,2013-03-31 22:14:00,
2013-03-31 18:15:00,61.2,57.6,29.81,SW,226,2.0,5.0,88,0.00,,,0.41,Wunderground v.1.15,2013-03-31 22:15:00,
2013-03-31 18:16:00,61.2,57.6,29.81,SW,226,1.0,5.0,88,0.00,,,0.41,Wunderground v.1.15,2013-03-31 22:16:00,
2013-03-31 18:20:00,61.2,57.3,29.81,SW,226,2.0,2.0,87,0.00,,,0.41,Wunderground v.1.15,2013-03-31 22:20:00,
2013-03-31 18:22:00,61.2,57.6,29.81,SW,226,5.0,5.0,88,0.00,,,0.41,Wunderground v.1.15,2013-03-31 22:22:00,
2013-03-31 18:25:00,61.2,57.3,29.81,SW,226,1.0,5.0,87,0.00,,,0.41,Wunderground v.1.15,2013-03-31 22:25:00,
2013-03-31 18:30:00,61.2,57.6,29.81,SW,226,3.0,6.0,88,0.00,,,0.41,Wunderground v.1.15,2013-03-31 22:30:00,
2013-03-31 18:31:00,61.2,57.3,29.81,SW,226,1.0,2.0,87,0.00,,,0.41,Wunderground v.1.15,2013-03-31 22:31:00,
2013-03-31 18:35:00,61.2,57.3,29.81,SW,226,6.0,6.0,87,0.00,,,0.41,Wunderground v.1.15,2013-03-31 22:35:00,
2013-03-31 18:36:00,61.2,57.3,29.81,SW,226,2.0,6.0,87,0.00,,,0.41,Wunderground v.1.15,2013-03-31 22:36:00,
2013-03-31 18:41:00,61.2,57.3,29.81,SW,226,1.0,6.0,87,0.00,,,0.41,Wunderground v.1.15,2013-03-31 22:41:00,
2013-03-31 18:42:00,61.2,57.3,29.81,SW,227,1.0,6.0,87,0.00,,,0.41,Wunderground v.1.15,2013-03-31 22:42:00,
2013-03-31 18:46:00,61.1,57.2,29.81,SW,227,5.0,7.0,87,0.00,,,0.41,Wunderground v.1.15,2013-03-31 22:46:00,
2013-03-31 18:47:00,61.1,57.2,29.81,SW,226,2.0,7.0,87,0.00,,,0.41,Wunderground v.1.15,2013-03-31 22:47:00,
2013-03-31 18:52:00,61.1,56.9,29.81,SW,227,1.0,5.0,86,0.00,,,0.41,Wunderground v.1.15,2013-03-31 22:52:00,
2013-03-31 18:53:00,61.0,57.1,29.81,SW,227,0.0,5.0,87,0.00,,,0.41,Wunderground v.1.15,2013-03-31 22:53:00,
2013-03-31 18:57:00,60.9,57.0,29.81,SW,226,2.0,6.0,87,0.00,,,0.41,Wunderground v.1.15,2013-03-31 22:57:00,
2013-03-31 18:58:00,60.9,57.0,29.81,SW,227,1.0,6.0,87,0.00,,,0.41,Wunderground v.1.15,2013-03-31 22:58:00,
2013-03-31 19:00:00,60.8,56.9,29.81,SW,227,1.0,2.0,87,0.00,,,0.41,Wunderground v.1.15,2013-03-31 23:00:00,
2013-03-31 19:03:00,60.7,57.1,29.81,SW,226,2.0,4.0,88,0.00,,,0.41,Wunderground v.1.15,2013-03-31 23:03:00,
2013-03-31 19:04:00,60.7,57.1,29.81,SW,227,5.0,5.0,88,0.00,,,0.41,Wunderground v.1.15,2013-03-31 23:04:00,
2013-03-31 19:05:00,60.7,56.8,29.81,SW,227,3.0,7.0,87,0.00,,,0.41,Wunderground v.1.15,2013-03-31 23:05:00,
2013-03-31 19:08:00,60.6,57.0,29.81,SW,227,2.0,7.0,88,0.00,,,0.41,Wunderground v.1.15,2013-03-31 23:08:00,
2013-03-31 19:09:00,60.6,57.0,29.81,SW,227,2.0,7.0,88,0.00,,,0.41,Wunderground v.1.15,2013-03-31 23:09:00,
2013-03-31 19:11:00,60.5,56.9,29.81,SW,227,0.0,3.0,88,0.00,,,0.41,Wunderground v.1.15,2013-03-31 23:11:00,
2013-03-31 19:13:00,60.4,57.1,29.81,SW,227,2.0,3.0,89,0.00,,,0.41,Wunderground v.1.15,2013-03-31 23:13:00,
2013-03-31 19:14:00,60.4,57.1,29.81,SW,227,0.0,3.0,89,0.00,,,0.41,Wunderground v.1.15,2013-03-31 23:14:00,
2013-03-31 19:15:00,60.3,57.0,29.81,SW,227,0.0,3.0,89,0.00,,,0.41,Wunderground v.1.15,2013-03-31 23:15:00,
2013-03-31 19:16:00,60.2,57.3,29.82,SW,227,2.0,3.0,90,0.00,,,0.41,Wunderground v.1.15,2013-03-31 23:16:00,
2013-03-31 19:18:00,60.1,57.2,29.81,SW,226,3.0,4.0,90,0.00,,,0.41,Wunderground v.1.15,2013-03-31 23:18:00,
2013-03-31 19:19:00,60.0,57.1,29.81,SW,227,1.0,5.0,90,0.00,,,0.41,Wunderground v.1.15,2013-03-31 23:19:00,
2013-03-31 19:21:00,59.9,57.0,29.81,SW,226,1.0,2.0,90,0.00,,,0.41,Wunderground v.1.15,2013-03-31 23:21:00,
2013-03-31 19:22:00,59.9,57.0,29.81,SW,227,0.0,2.0,90,0.00,,,0.41,Wunderground v.1.15,2013-03-31 23:22:00,
2013-03-31 19:23:00,59.8,56.9,29.81,SW,227,3.0,3.0,90,0.00,,,0.41,Wunderground v.1.15,2013-03-31 23:23:00,
2013-03-31 19:24:00,59.7,57.1,29.81,SW,227,0.0,4.0,91,0.00,,,0.41,Wunderground v.1.15,2013-03-31 23:24:00,
2013-03-31 19:26:00,59.6,57.0,29.81,SW,227,1.0,4.0,91,0.00,,,0.41,Wunderground v.1.15,2013-03-31 23:26:00,
2013-03-31 19:28:00,59.5,56.9,29.82,SW,227,0.0,4.0,91,0.00,,,0.41,Wunderground v.1.15,2013-03-31 23:28:00,
2013-03-31 19:29:00,59.5,56.9,29.82,SW,227,2.0,4.0,91,0.00,,,0.41,Wunderground v.1.15,2013-03-31 23:29:00,
2013-03-31 19:32:00,59.4,56.8,29.81,SW,227,2.0,2.0,91,0.00,,,0.41,Wunderground v.1.15,2013-03-31 23:32:00,
2013-03-31 19:33:00,59.3,56.7,29.81,SW,227,1.0,3.0,91,0.00,,,0.41,Wunderground v.1.15,2013-03-31 23:33:00,
2013-03-31 19:34:00,59.3,56.7,29.81,SW,227,0.0,3.0,91,0.00,,,0.41,Wunderground v.1.15,2013-03-31 23:34:00,
2013-03-31 19:37:00,59.1,56.5,29.81,SW,227,2.0,3.0,91,0.00,,,0.42,Wunderground v.1.15,2013-03-31 23:37:00,
2013-03-31 19:39:00,59.0,56.4,29.81,SW,227,2.0,4.0,91,0.00,,,0.42,Wunderground v.1.15,2013-03-31 23:39:00,
2013-03-31 19:40:00,59.0,56.4,29.82,SW,226,2.0,2.0,91,0.00,,,0.42,Wunderground v.1.15,2013-03-31 23:40:00,
2013-03-31 19:42:00,59.0,56.4,29.81,SW,227,2.0,3.0,91,0.00,,,0.42,Wunderground v.1.15,2013-03-31 23:42:00,
2013-03-31 19:44:00,59.0,56.4,29.82,SW,226,1.0,3.0,91,0.00,,,0.42,Wunderground v.1.15,2013-03-31 23:44:00,
2013-03-31 19:45:00,59.0,56.4,29.81,SW,227,2.0,3.0,91,0.00,,,0.42,Wunderground v.1.15,2013-03-31 23:45:00,
2013-03-31 19:48:00,59.0,56.7,29.82,SW,226,2.0,3.0,92,0.00,,,0.42,Wunderground v.1.15,2013-03-31 23:48:00,
2013-03-31 19:49:00,59.0,56.7,29.81,SW,227,1.0,3.0,92,0.00,,,0.42,Wunderground v.1.15,2013-03-31 23:49:00,
2013-03-31 19:50:00,59.0,56.7,29.81,SW,227,1.0,1.0,92,0.00,,,0.42,Wunderground v.1.15,2013-03-31 23:50:00,
2013-03-31 19:53:00,59.0,56.7,29.81,SW,226,0.0,3.0,92,0.00,,,0.42,Wunderground v.1.15,2013-03-31 23:53:00,
2013-03-31 19:54:00,59.0,56.7,29.81,SW,227,2.0,5.0,92,0.00,,,0.42,Wunderground v.1.15,2013-03-31 23:54:00,
2013-03-31 19:55:00,59.0,56.7,29.81,SW,227,1.0,5.0,92,0.00,,,0.42,Wunderground v.1.15,2013-03-31 23:55:00,
2013-03-31 19:59:00,58.9,56.6,29.81,SW,227,0.0,5.0,92,0.00,,,0.42,Wunderground v.1.15,2013-03-31 23:59:00,
2013-03-31 20:00:00,58.8,56.8,29.81,SW,227,0.0,2.0,93,0.00,,,0.42,Wunderground v.1.15,2013-04-01 00:00:00,
2013-03-31 20:01:00,58.8,56.8,29.81,SW,227,3.0,3.0,93,0.00,,,0.42,Wunderground v.1.15,2013-04-01 00:01:00,
2013-03-31 20:04:00,58.6,56.6,29.82,SW,226,1.0,4.0,93,0.00,,,0.43,Wunderground v.1.15,2013-04-01 00:04:00,
2013-03-31 20:06:00,58.6,56.6,29.81,SW,226,4.0,4.0,93,0.00,,,0.43,Wunderground v.1.15,2013-04-01 00:06:00,
2013-03-31 20:10:00,58.5,56.5,29.81,SW,226,2.0,2.0,93,0.00,,,0.43,Wunderground v.1.15,2013-04-01 00:10:00,
2013-03-31 20:11:00,58.5,56.5,29.81,SW,227,1.0,2.0,93,0.00,,,0.43,Wunderground v.1.15,2013-04-01 00:11:00,
2013-03-31 20:12:00,58.5,56.8,29.81,SW,227,1.0,2.0,94,0.00,,,0.43,Wunderground v.1.15,2013-04-01 00:12:00,
2013-03-31 20:15:00,58.4,56.7,29.81,SW,227,2.0,4.0,94,0.00,,,0.43,Wunderground v.1.15,2013-04-01 00:15:00,
2013-03-31 20:16:00,58.4,56.7,29.81,SW,227,1.0,4.0,94,0.00,,,0.43,Wunderground v.1.15,2013-04-01 00:16:00,
2013-03-31 20:17:00,58.4,56.7,29.81,SW,226,1.0,4.0,94,0.00,,,0.43,Wunderground v.1.15,2013-04-01 00:17:00,
2013-03-31 20:21:00,58.4,56.7,29.81,SW,227,0.0,3.0,94,0.00,,,0.43,Wunderground v.1.15,2013-04-01 00:21:00,
2013-03-31 20:22:00,58.4,56.7,29.81,SW,227,1.0,3.0,94,0.00,,,0.43,Wunderground v.1.15,2013-04-01 00:22:00,
2013-03-31 20:23:00,58.4,56.7,29.81,SW,226,1.0,3.0,94,0.00,,,0.43,Wunderground v.1.15,2013-04-01 00:23:00,
2013-03-31 20:28:00,58.4,56.7,29.82,SW,226,1.0,4.0,94,0.00,,,0.43,Wunderground v.1.15,2013-04-01 00:28:00,
2013-03-31 20:33:00,58.3,56.6,29.82,SW,226,2.0,3.0,94,0.00,,,0.43,Wunderground v.1.15,2013-04-01 00:33:00,
2013-03-31 20:38:00,58.3,56.9,29.82,SW,227,1.0,4.0,95,0.00,,,0.43,Wunderground v.1.15,2013-04-01 00:38:00,
2013-03-31 20:39:00,58.3,56.9,29.82,SW,226,2.0,4.0,95,0.00,,,0.43,Wunderground v.1.15,2013-04-01 00:39:00,
2013-03-31 20:43:00,58.2,56.8,29.82,SW,226,0.0,2.0,95,0.00,,,0.43,Wunderground v.1.15,2013-04-01 00:43:00,
2013-03-31 20:44:00,58.2,56.8,29.82,SW,226,1.0,2.0,95,0.00,,,0.43,Wunderground v.1.15,2013-04-01 00:44:00,
2013-03-31 20:48:00,58.2,56.8,29.82,SW,227,0.0,3.0,95,0.00,,,0.43,Wunderground v.1.15,2013-04-01 00:48:00,
2013-03-31 20:49:00,58.2,56.8,29.82,SW,226,0.0,3.0,95,0.00,,,0.43,Wunderground v.1.15,2013-04-01 00:49:00,
2013-03-31 20:54:00,58.1,56.7,29.82,SW,226,1.0,2.0,95,0.00,,,0.43,Wunderground v.1.15,2013-04-01 00:54:00,
2013-03-31 20:55:00,58.1,56.7,29.82,SW,227,1.0,2.0,95,0.00,,,0.43,Wunderground v.1.15,2013-04-01 00:55:00,
2013-03-31 20:59:00,58.1,56.7,29.82,SW,227,2.0,2.0,95,0.00,,,0.43,Wunderground v.1.15,2013-04-01 00:59:00,
2013-03-31 21:00:00,58.1,56.7,29.82,SW,227,0.0,1.0,95,0.00,,,0.43,Wunderground v.1.15,2013-04-01 01:00:00,
2013-03-31 21:04:00,58.1,56.7,29.82,SW,227,1.0,2.0,95,0.00,,,0.43,Wunderground v.1.15,2013-04-01 01:04:00,
2013-03-31 21:05:00,58.1,56.7,29.82,SW,227,2.0,2.0,95,0.00,,,0.43,Wunderground v.1.15,2013-04-01 01:05:00,
2013-03-31 21:10:00,58.1,56.7,29.83,SW,226,2.0,2.0,95,0.00,,,0.43,Wunderground v.1.15,2013-04-01 01:10:00,
2013-03-31 21:15:00,58.0,56.6,29.82,SW,227,0.0,3.0,95,0.00,,,0.43,Wunderground v.1.15,2013-04-01 01:15:00,
2013-03-31 21:20:00,58.0,56.6,29.82,SW,226,0.0,1.0,95,0.00,,,0.43,Wunderground v.1.15,2013-04-01 01:20:00,
2013-03-31 21:21:00,58.0,56.6,29.82,SW,227,0.0,1.0,95,0.00,,,0.43,Wunderground v.1.15,2013-04-01 01:21:00,
2013-03-31 21:25:00,58.0,56.6,29.83,SW,227,0.0,1.0,95,0.00,,,0.43,Wunderground v.1.15,2013-04-01 01:25:00,
2013-03-31 21:26:00,58.0,56.6,29.83,SW,226,0.0,1.0,95,0.00,,,0.43,Wunderground v.1.15,2013-04-01 01:26:00,
2013-03-31 21:28:00,58.0,56.6,29.83,SW,227,1.0,2.0,95,0.00,,,0.43,Wunderground v.1.15,2013-04-01 01:28:00,
2013-03-31 21:30:00,58.0,56.9,29.83,SW,226,1.0,1.0,96,0.00,,,0.43,Wunderground v.1.15,2013-04-01 01:30:00,
2013-03-31 21:31:00,58.0,56.9,29.83,SW,227,0.0,1.0,96,0.00,,,0.43,Wunderground v.1.15,2013-04-01 01:31:00,
2013-03-31 21:32:00,58.0,56.9,29.83,SW,227,1.0,1.0,96,0.00,,,0.43,Wunderground v.1.15,2013-04-01 01:32:00,
2013-03-31 21:33:00,58.0,56.9,29.84,SW,226,1.0,1.0,96,0.00,,,0.43,Wunderground v.1.15,2013-04-01 01:33:00,
2013-03-31 21:36:00,58.0,56.9,29.84,SW,227,1.0,1.0,96,0.00,,,0.43,Wunderground v.1.15,2013-04-01 01:36:00,
2013-03-31 21:37:00,58.0,56.9,29.83,SW,227,0.0,1.0,96,0.00,,,0.43,Wunderground v.1.15,2013-04-01 01:37:00,
2013-03-31 21:38:00,58.0,56.9,29.84,SW,226,0.0,1.0,96,0.00,,,0.43,Wunderground v.1.15,2013-04-01 01:38:00,
2013-03-31 21:41:00,57.9,56.8,29.84,SW,227,0.0,1.0,96,0.00,,,0.43,Wunderground v.1.15,2013-04-01 01:41:00,
2013-03-31 21:42:00,58.0,56.9,29.84,SW,227,0.0,1.0,96,0.00,,,0.43,Wunderground v.1.15,2013-04-01 01:42:00,
2013-03-31 21:43:00,58.0,56.9,29.84,SW,226,0.0,1.0,96,0.00,,,0.43,Wunderground v.1.15,2013-04-01 01:43:00,
2013-03-31 21:47:00,57.9,56.8,29.84,SW,226,0.0,1.0,96,0.00,,,0.43,Wunderground v.1.15,2013-04-01 01:47:00,
2013-03-31 21:48:00,57.9,56.8,29.84,SW,227,0.0,1.0,96,0.00,,,0.43,Wunderground v.1.15,2013-04-01 01:48:00,
2013-03-31 21:49:00,57.9,56.8,29.84,SW,227,0.0,1.0,96,0.00,,,0.43,Wunderground v.1.15,2013-04-01 01:49:00,
2013-03-31 21:52:00,57.8,56.7,29.84,SW,227,0.0,1.0,96,0.00,,,0.43,Wunderground v.1.15,2013-04-01 01:52:00,
2013-03-31 21:53:00,57.8,56.7,29.84,SW,227,0.0,1.0,96,0.00,,,0.43,Wunderground v.1.15,2013-04-01 01:53:00,
2013-03-31 21:54:00,57.8,56.7,29.84,SW,227,0.0,1.0,96,0.00,,,0.43,Wunderground v.1.15,2013-04-01 01:54:00,
2013-03-31 21:57:00,57.7,56.3,29.85,SW,226,1.0,2.0,95,0.00,,,0.43,Wunderground v.1.15,2013-04-01 01:57:00,
2013-03-31 21:58:00,57.7,56.3,29.85,SW,226,1.0,2.0,95,0.00,,,0.43,Wunderground v.1.15,2013-04-01 01:58:00,
2013-03-31 21:59:00,57.6,56.2,29.85,SW,226,0.0,2.0,95,0.00,,,0.43,Wunderground v.1.15,2013-04-01 01:59:00,
2013-03-31 22:02:00,57.6,56.2,29.85,SW,227,0.0,0.0,95,0.00,,,0.43,Wunderground v.1.15,2013-04-01 02:02:00,
2013-03-31 22:03:00,57.6,56.2,29.85,SW,227,0.0,0.0,95,0.00,,,0.43,Wunderground v.1.15,2013-04-01 02:03:00,
2013-03-31 22:04:00,57.6,56.2,29.85,SW,226,1.0,2.0,95,0.00,,,0.43,Wunderground v.1.15,2013-04-01 02:04:00,
2013-03-31 22:08:00,57.5,56.1,29.85,SW,227,1.0,3.0,95,0.00,,,0.43,Wunderground v.1.15,2013-04-01 02:08:00,
2013-03-31 22:10:00,57.3,55.9,29.84,SW,227,0.0,1.0,95,0.00,,,0.43,Wunderground v.1.15,2013-04-01 02:10:00,
2013-03-31 22:13:00,57.3,55.9,29.84,SW,227,0.0,1.0,95,0.00,,,0.43,Wunderground v.1.15,2013-04-01 02:13:00,
2013-03-31 22:17:00,57.1,55.7,29.85,SW,227,0.0,1.0,95,0.00,,,0.43,Wunderground v.1.15,2013-04-01 02:17:00,
2013-03-31 22:18:00,57.1,55.7,29.85,SW,227,0.0,1.0,95,0.00,,,0.43,Wunderground v.1.15,2013-04-01 02:18:00,
2013-03-31 22:19:00,57.1,55.7,29.85,SW,227,0.0,1.0,95,0.00,,,0.43,Wunderground v.1.15,2013-04-01 02:19:00,
2013-03-31 22:23:00,57.0,55.6,29.85,SW,227,0.0,0.0,95,0.00,,,0.43,Wunderground v.1.15,2013-04-01 02:23:00,
2013-03-31 22:24:00,57.0,55.6,29.85,SW,226,0.0,0.0,95,0.00,,,0.44,Wunderground v.1.15,2013-04-01 02:24:00,
2013-03-31 22:29:00,56.9,55.5,29.85,SW,227,0.0,0.0,95,0.00,,,0.44,Wunderground v.1.15,2013-04-01 02:29:00,
2013-03-31 22:30:00,56.9,55.5,29.85,SW,226,0.0,0.0,95,0.00,,,0.44,Wunderground v.1.15,2013-04-01 02:30:00,
2013-03-31 22:34:00,56.8,55.4,29.85,SW,226,0.0,0.0,95,0.00,,,0.44,Wunderground v.1.15,2013-04-01 02:34:00,
2013-03-31 22:35:00,56.8,55.4,29.85,SW,226,1.0,1.0,95,0.00,,,0.44,Wunderground v.1.15,2013-04-01 02:35:00,
2013-03-31 22:39:00,56.8,55.4,29.85,SW,227,0.0,1.0,95,0.00,,,0.44,Wunderground v.1.15,2013-04-01 02:39:00,
2013-03-31 22:41:00,56.7,55.3,29.85,SW,227,0.0,0.0,95,0.00,,,0.44,Wunderground v.1.15,2013-04-01 02:41:00,
2013-03-31 22:44:00,56.7,55.3,29.85,SW,226,0.0,0.0,95,0.00,,,0.44,Wunderground v.1.15,2013-04-01 02:44:00,
2013-03-31 22:46:00,56.6,55.2,29.85,SW,227,0.0,0.0,95,0.00,,,0.44,Wunderground v.1.15,2013-04-01 02:46:00,
2013-03-31 22:49:00,56.6,55.2,29.85,SW,226,0.0,0.0,95,0.00,,,0.44,Wunderground v.1.15,2013-04-01 02:49:00,
2013-03-31 22:52:00,56.5,55.1,29.85,SW,227,0.0,1.0,95,0.00,,,0.44,Wunderground v.1.15,2013-04-01 02:52:00,
2013-03-31 22:53:00,56.5,55.1,29.85,SW,227,0.0,1.0,95,0.00,,,0.44,Wunderground v.1.15,2013-04-01 02:53:00,
2013-03-31 22:55:00,56.5,55.1,29.85,SW,226,0.0,1.0,95,0.00,,,0.44,Wunderground v.1.15,2013-04-01 02:55:00,
2013-03-31 22:57:00,56.5,55.1,29.85,SW,227,0.0,1.0,95,0.00,,,0.44,Wunderground v.1.15,2013-04-01 02:57:00,
2013-03-31 22:58:00,56.4,55.0,29.85,SW,227,0.0,1.0,95,0.00,,,0.44,Wunderground v.1.15,2013-04-01 02:58:00,
2013-03-31 23:00:00,56.4,55.0,29.85,SW,227,0.0,0.0,95,0.00,,,0.44,Wunderground v.1.15,2013-04-01 03:00:00,
2013-03-31 23:03:00,56.4,55.0,29.85,SW,227,0.0,0.0,95,0.00,,,0.44,Wunderground v.1.15,2013-04-01 03:03:00,
2013-03-31 23:04:00,56.4,55.0,29.85,SW,226,0.0,0.0,95,0.00,,,0.44,Wunderground v.1.15,2013-04-01 03:04:00,
2013-03-31 23:05:00,56.4,55.0,29.85,SW,226,0.0,0.0,95,0.00,,,0.44,Wunderground v.1.15,2013-04-01 03:05:00,
2013-03-31 23:08:00,56.4,55.0,29.85,SW,227,1.0,1.0,95,0.00,,,0.44,Wunderground v.1.15,2013-04-01 03:08:00,
2013-03-31 23:09:00,56.4,55.0,29.85,SW,227,0.0,1.0,95,0.00,,,0.44,Wunderground v.1.15,2013-04-01 03:09:00,
2013-03-31 23:10:00,56.4,55.0,29.85,SW,227,0.0,1.0,95,0.00,,,0.44,Wunderground v.1.15,2013-04-01 03:10:00,
2013-03-31 23:13:00,56.3,54.9,29.85,SW,227,0.0,1.0,95,0.00,,,0.44,Wunderground v.1.15,2013-04-01 03:13:00,
2013-03-31 23:14:00,56.3,54.9,29.85,SW,227,0.0,1.0,95,0.00,,,0.44,Wunderground v.1.15,2013-04-01 03:14:00,
2013-03-31 23:16:00,56.3,54.9,29.85,SW,227,0.0,1.0,95,0.00,,,0.44,Wunderground v.1.15,2013-04-01 03:16:00,
2013-03-31 23:17:00,56.3,54.9,29.85,SW,227,0.0,1.0,95,0.00,,,0.44,Wunderground v.1.15,2013-04-01 03:17:00,
2013-03-31 23:19:00,56.3,54.9,29.85,SW,227,0.0,1.0,95,0.00,,,0.44,Wunderground v.1.15,2013-04-01 03:19:00,
2013-03-31 23:20:00,56.3,54.9,29.85,SW,227,0.0,0.0,95,0.00,,,0.44,Wunderground v.1.15,2013-04-01 03:20:00,
2013-03-31 23:22:00,56.3,54.9,29.85,SW,227,0.0,0.0,95,0.00,,,0.44,Wunderground v.1.15,2013-04-01 03:22:00,
2013-03-31 23:24:00,56.2,54.8,29.86,SW,226,0.0,0.0,95,0.00,,,0.44,Wunderground v.1.15,2013-04-01 03:24:00,
2013-03-31 23:26:00,56.2,55.1,29.86,SW,227,0.0,0.0,96,0.00,,,0.44,Wunderground v.1.15,2013-04-01 03:26:00,
2013-03-31 23:27:00,56.2,55.1,29.86,SW,226,0.0,0.0,96,0.00,,,0.44,Wunderground v.1.15,2013-04-01 03:27:00,
2013-03-31 23:30:00,56.2,55.1,29.86,SW,226,0.0,0.0,96,0.00,,,0.44,Wunderground v.1.15,2013-04-01 03:30:00,
2013-03-31 23:31:00,56.2,55.1,29.86,SW,227,0.0,0.0,96,0.00,,,0.44,Wunderground v.1.15,2013-04-01 03:31:00,
2013-03-31 23:32:00,56.2,55.1,29.86,SW,227,0.0,0.0,96,0.00,,,0.44,Wunderground v.1.15,2013-04-01 03:32:00,
2013-03-31 23:33:00,56.2,55.1,29.86,SW,226,0.0,0.0,96,0.00,,,0.44,Wunderground v.1.15,2013-04-01 03:33:00,
2013-03-31 23:35:00,56.2,55.1,29.86,SW,227,0.0,0.0,96,0.00,,,0.44,Wunderground v.1.15,2013-04-01 03:35:00,
2013-03-31 23:37:00,56.2,55.1,29.86,SW,227,0.0,0.0,96,0.00,,,0.44,Wunderground v.1.15,2013-04-01 03:37:00,
2013-03-31 23:38:00,56.2,55.1,29.86,SW,227,0.0,0.0,96,0.00,,,0.44,Wunderground v.1.15,2013-04-01 03:38:00,
2013-03-31 23:39:00,56.2,55.1,29.86,SW,227,0.0,0.0,96,0.00,,,0.44,Wunderground v.1.15,2013-04-01 03:39:00,
2013-03-31 23:42:00,56.2,55.1,29.86,SW,227,0.0,0.0,96,0.00,,,0.44,Wunderground v.1.15,2013-04-01 03:42:00,
2013-03-31 23:43:00,56.2,55.1,29.86,SW,227,0.0,0.0,96,0.00,,,0.44,Wunderground v.1.15,2013-04-01 03:43:00,
2013-03-31 23:44:00,56.2,55.1,29.86,SW,227,0.0,0.0,96,0.00,,,0.44,Wunderground v.1.15,2013-04-01 03:44:00,
2013-03-31 23:48:00,56.2,55.1,29.86,SW,226,0.0,0.0,96,0.00,,,0.44,Wunderground v.1.15,2013-04-01 03:48:00,
2013-03-31 23:50:00,56.1,55.0,29.86,SW,227,0.0,0.0,96,0.00,,,0.44,Wunderground v.1.15,2013-04-01 03:50:00,
2013-03-31 23:53:00,56.1,55.0,29.86,SW,226,0.0,1.0,96,0.00,,,0.44,Wunderground v.1.15,2013-04-01 03:53:00,
2013-03-31 23:54:00,56.1,55.0,29.86,SW,227,0.0,1.0,96,0.00,,,0.44,Wunderground v.1.15,2013-04-01 03:54:00,
2013-03-31 23:55:00,56.2,55.1,29.86,SW,227,0.0,1.0,96,0.00,,,0.44,Wunderground v.1.15,2013-04-01 03:55:00,
2013-03-31 23:58:00,56.1,55.0,29.86,SW,227,0.0,1.0,96,0.00,,,0.44,Wunderground v.1.15,2013-04-01 03:58:00,
2013-03-31 23:59:00,56.2,55.1,29.86,SW,227,0.0,1.0,96,0.00,,,0.44,Wunderground v.1.15,2013-04-01 03:59:00,